GFSWCAN_sfc_dewp_000.txt.gz
Dewpoint
50 50 50 50 50 50 50 50 50 50 50 50 50 50 50 50 50 54 54 54 52 45 47 45 45 43 43 43 43 43 42 42 40 35 35 36 34 37 36 33 36 34 34 32 34 32 30 31 27 31 35 40 38 39
49 49 49 49 49 49 50 50 50 50 50 50 50 50 50 50 50 51 52 55 53 48 48 50 48 47 46 45 43 45 42 40 43 41 38 38 33 34 35 32 35 33 36 36 33 34 36 35 35 37 40 39 39 40
48 48 49 48 49 49 49 49 49 49 49 49 49 50 50 50 50 51 53 53 51 38 46 47 48 49 49 49 49 45 42 44 43 45 43 36 34 37 34 35 37 36 37 36 37 36 35 37 39 40 40 40 39 41
47 48 48 48 48 48 48 49 49 49 49 49 49 49 49 50 50 50 50 53 52 43 34 43 49 48 48 49 48 49 47 48 47 48 36 35 35 40 37 37 37 37 38 37 38 39 38 38 38 39 39 40 40 40
47 47 47 48 48 48 48 48 48 48 49 49 49 49 50 50 50 51 51 52 53 48 37 41 44 46 47 48 48 48 48 48 47 36 34 36 39 39 39 39 37 40 38 36 37 38 39 40 38 37 38 39 40 42
46 47 47 47 47 47 48 48 48 48 48 48 49 49 49 49 49 48 43 48 51 50 38 34 42 42 45 47 46 45 47 48 46 41 36 40 42 39 33 35 38 37 37 37 37 38 38 37 38 38 39 41 41 40
45 46 47 47 47 46 46 46 46 47 47 48 48 48 49 48 49 45 41 46 48 50 35 33 35 39 38 41 43 44 46 47 45 40 36 40 40 41 34 34 36 37 35 35 37 38 38 37 38 40 39 35 34 35
46 46 46 46 46 46 45 45 46 46 46 46 47 47 47 47 46 44 47 48 49 44 37 32 35 39 39 39 39 41 43 43 42 42 42 40 41 38 35 34 33 30 31 33 34 36 37 38 36 29 27 27 28 31
46 46 45 45 45 45 45 45 45 46 46 46 46 47 46 44 41 42 47 48 48 43 33 33 33 34 38 38 39 40 41 35 43 36 39 39 39 34 32 30 30 31 33 33 36 35 32 26 25 26 27 28 30 33
45 44 44 44 44 44 44 45 45 45 46 46 45 41 37 41 45 46 44 40 39 36 36 33 37 36 37 38 37 37 36 34 33 36 39 34 33 33 32 33 34 35 35 33 30 26 27 28 27 28 31 34 36 36
44 44 43 43 43 43 43 43 43 43 42 42 39 38 44 43 43 39 36 33 36 33 36 37 37 36 39 34 35 38 35 34 31 33 34 34 31 29 30 30 30 28 27 26 26 27 27 29 30 32 34 35 35 35
42 42 42 42 43 43 43 43 42 42 42 41 41 42 41 40 37 33 32 34 32 31 35 35 35 35 38 39 37 36 33 34 29 31 30 27 28 27 26 24 26 26 26 26 25 27 29 31 34 35 35 34 34 32
42 42 42 42 42 43 43 43 41 43 43 42 38 35 35 34 28 25 24 31 32 36 34 34 34 35 35 34 32 32 30 30 32 29 28 28 26 25 25 25 25 26 28 29 26 28 31 33 33 34 35 34 32 30
40 40 40 41 41 41 42 43 43 41 40 35 32 27 28 27 27 28 31 33 34 34 34 35 35 35 36 33 34 30 32 31 27 24 27 27 23 23 25 27 27 27 32 30 27 30 35 33 33 30 30 29 30 28
40 39 39 39 40 40 41 43 41 41 37 33 32 25 27 31 32 32 32 33 35 35 35 34 33 32 32 30 32 31 28 24 25 26 30 30 26 26 28 29 28 34 33 30 27 33 33 32 29 29 27 29 29 27
39 38 36 39 39 39 41 40 39 39 35 31 32 28 30 30 31 30 30 31 35 34 33 32 27 25 25 30 27 27 25 19 27 34 32 27 26 27 27 32 33 32 29 28 27 31 31 30 30 29 29 30 28 29
38 35 38 39 40 41 39 35 37 33 30 27 26 32 32 30 29 32 32 34 35 32 30 29 24 21 27 24 23 26 25 30 35 33 29 28 28 28 29 32 33 34 30 29 28 29 30 28 29 28 29 27 27 28
36 35 39 39 39 39 37 37 34 30 24 25 25 30 28 30 32 32 32 33 32 31 27 24 27 25 24 19 20 28 30 32 32 32 29 28 29 29 29 31 32 33 33 32 33 31 27 28 25 23 27 27 29 30
37 36 39 40 38 36 32 33 33 24 23 26 28 29 30 33 34 32 34 34 34 30 32 30 25 22 23 25 31 34 34 34 30 28 29 30 31 32 33 33 34 35 35 33 31 29 26 25 24 24 25 28 30 30
39 38 39 39 37 34 30 30 34 27 23 24 27 28 28 29 32 33 33 33 32 31 27 26 23 27 28 27 26 28 29 30 31 31 30 29 30 32 34 33 34 35 34 32 31 31 28 25 26 27 29 30 32 31
38 38 38 39 36 35 31 29 27 25 25 25 27 28 27 30 29 31 31 33 31 26 23 25 29 29 28 27 27 28 28 29 30 32 31 30 31 33 34 34 33 34 32 32 32 31 28 29 30 29 30 31 31 31
38 39 35 36 33 32 32 32 28 29 27 28 27 28 27 27 27 28 30 29 26 27 27 28 26 25 25 25 25 27 28 29 30 31 30 31 30 32 33 34 33 32 33 33 33 33 31 29 30 30 31 30 28 31
38 36 32 32 31 30 28 31 27 28 24 24 27 24 24 24 27 27 25 23 23 24 23 23 24 26 26 26 27 28 29 30 30 30 32 31 32 34 34 34 34 33 32 31 29 31 30 28 29 31 30 30 30 30
38 33 31 29 28 25 28 25 27 26 26 23 22 20 20 23 24 24 20 23 24 24 23 22 23 24 26 26 27 27 28 29 30 30 31 31 32 32 33 32 32 32 32 30 29 32 30 30 29 29 29 29 29 28
29 28 29 25 29 24 21 21 22 21 20 21 20 19 22 24 21 19 18 20 26 29 29 27 27 26 26 28 30 30 33 32 29 29 32 34 35 31 28 28 28 30 32 32 30 30 30 30 31 28 27 28 27 28
23 27 25 24 24 22 21 19 19 20 19 18 20 22 23 22 18 17 17 28 34 29 33 33 33 31 30 31 31 30 31 31 31 31 33 32 33 33 32 29 29 30 32 33 32 30 30 30 30 27 27 28 26 27
22 22 27 26 23 23 22 21 21 22 19 18 21 20 20 17 17 19 23 26 25 32 32 33 33 31 30 30 30 30 31 30 30 30 30 29 30 30 34 33 32 34 33 31 32 32 32 31 29 28 28 30 29 28
25 27 21 24 23 23 20 20 19 19 20 21 21 18 19 19 18 23 26 29 33 33 32 31 32 32 32 32 30 29 29 29 29 30 31 31 32 32 30 31 30 28 32 31 32 32 32 32 30 29 28 28 27 26
26 28 26 21 22 23 23 21 21 22 22 22 21 21 21 23 32 30 29 30 30 30 29 30 32 33 32 32 30 29 29 29 28 27 28 30 30 30 31 31 30 30 31 30 27 29 29 28 27 26 25 25 25 24
25 27 24 23 20 20 25 27 27 31 27 27 26 25 25 27 29 27 27 27 26 27 28 27 27 28 30 30 31 31 30 30 31 30 30 31 32 32 30 30 30 29 29 28 26 25 23 23 22 22 22 22 22 21
27 26 24 24 23 26 30 26 25 26 27 26 27 26 26 29 25 22 22 22 21 22 25 27 27 30 29 29 29 28 28 30 29 30 30 31 32 31 30 30 29 29 28 27 26 25 24 23 22 19 18 17 17 18
24 23 23 21 22 24 23 24 25 24 25 24 25 26 25 26 26 23 20 20 22 23 21 22 25 27 28 29 29 30 28 29 28 27 27 29 30 31 30 29 29 29 28 27 25 24 23 21 21 19 19 17 16 15
24 25 24 23 23 23 24 23 23 23 22 22 23 23 24 25 23 18 19 19 19 18 18 19 23 26 25 25 25 25 25 25 25 25 26 26 27 28 29 29 28 27 26 25 24 23 21 20 19 18 18 16 14 12

GFSWCAN_sfc_dewp_003.txt.gz
Dewpoint
50 50 50 50 50 50 50 50 50 51 50 50 50 50 50 50 50 54 55 57 53 49 47 48 46 44 43 44 45 42 43 44 44 37 35 37 35 35 34 32 34 32 35 33 34 32 31 31 31 35 39 41 39 39
48 49 49 49 49 50 50 50 50 50 50 50 50 50 50 50 50 52 55 57 56 53 49 52 49 47 46 44 43 46 43 40 44 43 39 39 35 35 35 31 34 31 35 36 34 35 38 38 37 39 39 40 41 42
48 48 48 48 48 49 49 49 49 49 49 49 49 50 50 50 50 52 55 56 54 41 48 50 49 49 49 49 49 48 48 44 43 44 47 39 35 40 34 35 37 38 38 38 38 36 35 36 39 41 40 40 38 40
47 48 48 48 48 48 48 48 48 49 49 49 49 49 49 50 50 51 53 56 54 44 34 43 50 49 49 49 49 48 47 48 47 50 37 35 34 41 37 37 37 37 39 37 38 38 37 39 40 38 39 39 37 39
47 47 48 48 48 48 48 48 48 48 48 49 49 49 49 50 50 51 52 54 55 50 37 40 46 46 47 47 47 47 47 47 50 40 35 36 42 40 39 39 37 39 38 36 36 40 41 39 35 35 36 38 39 37
47 47 47 47 48 47 48 48 48 48 48 48 49 49 49 49 49 49 44 49 53 52 40 35 44 44 44 46 46 47 47 48 49 45 37 42 43 40 34 35 38 38 39 40 40 41 39 36 35 36 38 38 30 28
46 47 47 47 46 46 46 46 47 47 48 48 48 49 49 49 50 46 42 48 50 52 35 35 36 41 39 43 45 45 47 49 46 44 39 41 41 41 35 35 37 36 37 36 38 38 34 35 35 37 31 27 28 27
45 46 47 46 46 46 45 46 46 47 47 47 47 48 48 48 47 44 47 48 50 43 38 34 35 38 40 41 41 44 44 43 42 42 41 41 41 39 35 36 32 30 29 28 29 33 36 36 33 27 26 26 28 29
45 46 46 45 45 45 45 45 46 46 46 47 47 47 47 45 41 43 47 48 48 42 33 32 34 34 39 40 40 41 41 34 43 37 41 38 39 36 34 30 29 29 30 34 34 34 30 28 27 26 25 27 31 34
45 45 45 44 45 45 45 45 46 46 46 46 45 41 37 43 45 46 44 40 37 36 35 33 38 36 38 39 36 37 38 34 32 37 37 38 34 33 31 31 31 33 32 31 31 29 30 28 26 26 27 31 34 36
45 45 44 44 44 44 44 45 45 45 43 43 41 39 44 44 44 40 36 34 36 33 34 36 38 36 40 36 35 38 34 36 32 31 36 34 31 29 28 31 32 29 27 26 27 27 26 27 26 30 33 34 35 35
44 44 44 43 44 44 43 43 42 42 41 42 43 44 44 41 38 34 32 35 33 31 35 37 35 35 39 41 38 37 33 35 29 34 32 29 28 27 27 26 26 26 27 26 27 28 27 26 30 34 35 34 36 34
43 43 43 43 43 43 43 42 42 43 43 42 40 37 37 35 30 27 25 31 33 36 35 34 34 36 37 36 33 33 31 32 35 31 29 29 30 24 22 22 22 23 29 32 29 30 30 30 32 35 35 36 33 35
42 43 43 43 43 43 43 43 42 40 39 37 34 29 31 29 28 28 30 34 35 34 35 37 36 35 36 34 34 30 32 32 28 25 29 30 24 22 24 26 27 26 35 35 31 32 34 35 35 35 33 34 33 32
41 42 42 42 42 43 44 42 40 40 38 34 32 27 28 31 35 35 35 36 37 36 37 36 35 33 31 29 31 30 26 24 25 24 30 30 28 28 28 28 26 33 35 34 32 35 35 34 34 34 34 32 33 32
41 40 38 41 41 41 43 41 38 39 37 34 33 31 33 32 32 32 32 33 37 36 35 35 31 27 25 29 27 25 21 15 26 36 32 26 25 27 27 30 31 30 31 32 32 33 33 34 33 33 34 33 32 32
39 35 40 40 41 41 40 35 37 33 34 31 31 34 35 32 32 34 35 35 35 34 30 30 24 22 21 23 21 20 23 30 33 31 28 26 27 29 30 30 31 33 33 32 33 34 32 33 34 32 29 29 31 32
35 37 40 41 39 38 35 37 35 32 28 28 26 33 30 33 35 34 34 36 34 30 26 25 22 21 20 14 20 28 29 30 31 31 28 26 29 30 30 30 32 31 32 34 36 36 34 33 31 26 28 28 31 31
35 35 39 40 38 36 32 34 34 27 26 27 27 28 31 35 35 34 35 35 34 31 30 29 25 21 23 24 29 32 33 34 30 27 27 29 29 30 31 30 33 33 34 34 34 34 32 32 29 23 25 28 29 31
39 39 39 39 37 34 32 32 34 27 25 25 27 28 29 30 35 34 33 33 32 31 27 26 23 26 27 27 27 28 29 29 29 29 28 28 28 29 30 31 32 32 34 34 34 33 34 32 26 27 30 31 34 33
37 39 39 38 36 34 31 27 26 26 24 24 25 27 28 32 31 32 33 34 32 28 23 24 29 30 30 30 30 30 29 28 28 30 30 29 31 32 31 32 32 33 33 34 33 32 33 33 31 31 33 33 33 33
37 38 38 38 34 34 32 30 27 29 27 27 27 27 29 29 31 32 31 29 27 27 26 28 27 27 27 26 27 29 29 29 29 29 28 30 31 32 33 32 32 33 33 33 34 34 35 33 35 33 32 32 32 32
38 37 35 34 31 31 30 31 27 26 25 25 27 25 25 26 27 28 26 24 25 25 24 24 25 28 26 26 27 27 28 28 29 30 32 33 32 33 33 32 34 33 33 35 34 35 35 32 31 31 33 32 31 30
38 33 32 31 30 27 31 28 27 26 26 25 23 20 19 24 28 26 21 26 27 25 24 23 24 23 24 24 26 27 28 30 30 31 33 32 30 30 32 33 35 36 35 34 35 34 33 32 30 31 30 30 29 28
29 28 30 26 30 26 22 23 23 23 21 22 20 19 22 29 22 19 20 23 30 31 30 28 27 24 26 28 30 31 34 32 34 34 32 34 34 33 34 36 35 34 36 33 32 32 32 32 32 31 31 29 27 27
24 29 25 24 25 23 21 18 19 19 20 19 21 22 30 23 18 17 15 30 36 31 34 34 35 30 27 27 28 30 32 33 33 30 31 33 34 33 33 33 32 32 35 34 33 32 32 31 31 29 29 28 25 28
23 23 28 25 23 23 25 27 25 23 19 17 19 21 22 17 15 16 20 24 26 34 32 34 32 31 30 30 32 34 33 32 32 30 33 32 31 33 35 34 33 35 36 35 34 33 32 31 31 32 32 32 32 30
25 29 22 28 26 25 22 21 20 18 19 18 21 18 21 19 15 21 25 29 36 34 34 35 35 34 33 32 33 34 33 33 32 30 31 31 33 34 34 35 34 30 35 34 33 33 33 33 32 32 32 28 29 29
25 29 29 22 25 25 24 22 22 22 21 23 24 23 23 24 33 33 31 33 34 34 33 33 34 35 34 33 33 33 33 31 30 28 28 29 33 32 34 33 32 33 33 32 30 32 33 33 33 32 30 28 29 28
26 31 25 24 22 21 26 30 30 34 30 31 29 27 27 30 33 35 33 32 31 32 32 32 31 30 28 29 30 32 33 32 32 30 29 31 32 34 33 32 32 32 32 32 30 27 25 26 25 26 26 25 25 23
31 32 27 26 25 28 31 34 32 31 32 31 33 30 30 33 34 31 28 28 28 28 28 28 29 29 28 28 29 29 29 32 31 30 30 32 32 33 32 32 32 32 31 30 28 27 27 27 27 25 23 22 21 21
28 27 25 23 26 32 29 29 30 30 31 29 27 30 30 27 25 28 24 25 25 26 25 25 25 26 29 31 31 31 29 30 30 31 31 32 32 32 32 32 32 32 31 29 28 27 25 24 24 23 22 19 19 18
27 28 27 26 26 27 29 27 26 25 26 25 25 26 27 26 26 22 22 22 22 22 21 22 24 27 27 27 28 28 26 26 24 23 24 25 27 30 32 32 31 30 27 27 27 26 23 22 22 21 20 19 17 16

GFSWCAN_sfc_dewp_006.txt.gz
Dewpoint
51 50 50 50 50 50 50 50 50 51 51 50 50 50 50 50 50 53 57 59 55 49 48 47 47 45 43 44 47 44 43 46 44 36 35 37 35 37 35 32 34 31 34 33 33 32 29 33 35 35 37 41 41 42
50 50 49 49 49 50 50 50 50 50 50 50 50 50 50 50 50 51 53 59 59 54 49 54 52 51 47 46 46 46 44 41 45 42 38 38 35 36 34 32 32 31 34 34 32 33 36 37 37 40 40 41 42 41
48 48 49 49 49 49 49 49 49 49 50 50 50 50 50 50 50 52 53 57 55 41 49 50 49 50 51 51 52 48 50 45 44 47 46 37 34 40 34 35 37 36 36 36 35 34 35 37 39 41 41 41 41 41
48 48 48 48 48 48 48 48 48 49 49 49 49 49 49 50 50 51 53 56 54 44 34 44 49 49 50 50 51 51 50 50 50 50 39 36 34 41 37 36 36 37 37 36 35 37 37 38 40 40 40 40 41 41
47 47 48 48 47 47 48 48 48 48 48 49 49 49 49 50 50 51 53 55 56 49 38 40 45 46 48 49 48 49 49 49 49 41 36 36 42 39 41 39 37 38 36 36 35 37 40 39 39 40 39 41 39 33
46 47 47 47 47 47 47 47 48 48 48 48 49 49 49 49 50 50 45 50 52 53 40 34 45 44 45 46 46 46 48 49 49 45 39 43 44 39 34 34 36 36 36 38 37 37 37 38 36 38 39 39 30 28
46 47 47 46 46 46 47 47 47 48 48 48 48 48 49 49 50 46 42 48 50 52 35 36 39 42 41 43 44 45 47 47 47 44 39 39 39 41 34 35 37 38 37 36 36 37 37 36 37 36 33 28 29 29
45 47 47 46 46 46 46 46 47 47 48 48 48 48 48 48 48 44 47 48 49 43 38 35 34 37 41 42 41 44 43 41 40 40 38 37 40 37 34 36 35 34 32 31 34 35 34 31 29 27 26 27 28 31
45 45 46 46 45 45 45 46 46 47 47 47 47 47 46 44 41 43 47 47 47 41 34 32 33 33 39 40 39 38 39 33 40 35 38 38 37 34 36 34 32 32 32 34 33 29 28 27 26 26 26 27 29 32
45 45 45 45 45 45 45 45 46 46 46 46 45 42 35 41 46 46 43 37 35 34 34 32 39 37 38 38 36 36 36 33 32 36 38 37 35 36 35 33 32 32 28 27 31 30 30 29 26 27 27 28 33 33
45 45 45 45 45 45 45 46 46 46 44 44 42 37 44 45 44 40 34 33 33 32 34 36 37 37 40 35 34 36 33 34 31 33 36 34 31 31 30 30 29 27 26 26 25 25 25 27 27 28 31 34 34 34
46 45 45 45 45 45 45 45 45 42 43 43 43 44 44 41 38 34 32 35 33 31 37 36 36 37 37 41 37 35 32 34 27 34 32 28 29 26 28 27 24 24 24 24 25 24 24 25 29 33 34 36 34 34
45 44 44 44 44 44 43 42 42 43 43 42 40 37 37 36 30 28 26 32 32 36 35 36 34 37 37 37 34 32 30 27 35 31 26 29 30 28 24 22 23 24 33 32 26 24 28 29 32 33 33 34 34 32
43 43 43 43 43 43 42 42 43 41 39 38 33 28 31 28 28 28 31 33 34 35 36 37 36 36 36 32 32 28 30 34 28 24 25 32 27 25 27 28 27 26 31 30 31 32 32 33 33 33 33 32 30 29
43 43 43 43 43 43 43 42 41 39 39 34 33 26 29 32 36 34 36 36 36 36 37 36 35 34 33 30 31 30 25 22 24 24 32 32 33 32 30 30 27 33 31 30 30 31 32 33 33 32 33 31 32 31
43 42 40 43 43 43 41 40 38 39 35 34 32 30 33 33 32 32 33 34 37 36 36 36 31 25 24 27 24 23 21 17 26 36 32 29 30 31 29 28 32 31 31 30 30 32 32 33 33 33 33 33 32 32
40 36 41 41 42 42 41 36 38 33 34 30 30 36 36 34 33 34 34 35 37 34 30 30 22 21 25 22 19 21 24 29 32 32 29 30 29 29 27 28 30 30 31 30 31 32 33 35 34 32 31 32 31 31
37 39 41 41 40 38 36 38 34 31 28 28 27 32 31 34 34 34 34 36 36 30 26 24 23 21 19 16 19 26 29 30 30 29 28 27 27 27 28 29 28 28 30 31 32 34 34 33 33 32 32 30 31 31
38 37 41 41 37 35 33 35 35 27 28 28 28 29 32 36 36 34 36 36 36 33 31 29 24 22 23 24 27 30 31 31 28 26 27 28 28 28 27 27 28 30 29 30 33 33 32 34 33 34 30 29 30 32
39 40 40 40 38 34 32 32 33 29 26 27 28 29 30 30 36 34 34 33 33 33 28 25 23 25 27 27 27 28 28 28 28 28 27 27 28 28 28 29 29 29 30 31 32 32 32 32 33 33 32 33 34 34
37 38 39 38 38 36 32 28 26 26 25 23 25 28 28 34 33 33 31 34 30 26 22 25 27 28 28 28 29 30 29 29 28 30 29 28 29 30 29 29 30 30 32 32 32 33 32 32 33 32 33 33 33 33
38 38 38 37 34 34 31 30 26 29 26 25 26 27 29 29 30 32 32 30 27 27 27 27 27 27 27 27 28 29 30 29 28 28 28 29 29 30 30 31 32 32 33 33 33 33 33 33 34 34 32 32 32 31
37 37 35 34 29 28 28 31 28 25 24 25 26 24 25 27 28 27 27 25 27 28 28 28 28 30 28 28 27 27 27 27 28 29 31 32 32 33 32 32 32 32 32 32 34 33 33 34 33 32 32 32 31 29
38 33 31 28 28 25 31 26 28 25 26 23 22 19 20 26 28 26 22 25 26 27 26 26 27 26 26 26 26 26 27 30 30 32 33 32 32 32 32 32 34 34 34 34 34 34 33 32 32 31 32 30 29 28
29 28 30 25 30 26 23 24 24 22 20 21 21 21 22 28 21 19 20 21 27 29 30 30 29 28 27 28 28 29 31 30 31 32 33 32 33 32 31 33 33 34 34 33 33 32 32 32 32 30 30 30 28 28
24 28 25 24 25 23 22 18 20 21 22 21 21 23 31 23 18 19 16 29 36 32 33 34 34 31 28 27 27 28 31 35 33 31 30 31 32 32 32 32 32 34 36 34 33 32 32 32 31 30 30 29 27 26
24 24 28 26 23 23 26 28 25 24 20 18 20 22 20 18 17 16 21 26 28 36 35 35 34 30 29 29 31 35 36 34 33 30 31 31 30 32 33 32 31 35 36 34 33 33 32 32 31 30 28 30 29 28
25 28 23 27 26 27 24 23 21 19 20 21 22 19 18 19 16 23 29 34 39 36 36 36 36 34 34 35 35 33 33 32 32 32 32 31 31 33 34 33 34 30 35 34 33 32 33 33 31 30 30 28 30 30
26 29 29 23 25 25 25 23 24 23 22 22 22 20 22 22 29 30 30 34 38 36 33 33 34 34 35 34 33 32 33 33 30 28 26 27 28 33 34 33 32 32 33 32 32 32 33 33 32 31 32 30 30 29
25 31 24 23 22 21 25 28 28 32 30 30 29 29 29 30 32 34 34 36 34 32 33 32 32 31 28 29 29 30 33 33 32 30 27 27 28 31 32 32 32 32 32 32 31 29 29 30 29 29 28 27 27 26
30 31 26 26 24 27 29 32 33 33 33 31 32 30 29 30 34 37 34 34 33 31 29 28 28 31 29 29 29 28 28 32 30 29 29 30 31 32 32 32 32 32 32 31 29 29 28 28 29 27 26 24 25 23
30 26 24 22 25 31 32 31 32 30 30 30 30 31 31 30 28 29 25 25 25 25 27 26 25 27 28 29 31 31 28 28 26 26 25 29 32 32 32 32 32 32 31 30 29 29 27 26 26 24 23 22 21 21
27 28 25 24 24 24 27 28 27 25 27 27 27 28 29 29 26 23 23 24 23 23 22 23 25 27 28 27 28 28 27 25 23 22 21 21 20 22 26 30 31 30 29 28 27 27 25 23 23 24 23 23 21 19

GFSWCAN_sfc_dewp_009.txt.gz
Dewpoint
51 50 50 50 50 50 50 51 51 51 50 50 50 50 50 50 51 52 53 56 52 44 47 47 48 45 45 43 35 40 39 38 36 33 33 33 32 31 29 30 27 26 25 29 26 30 23 35 33 29 34 38 37 39
51 50 49 49 49 50 50 50 50 50 50 50 50 50 50 50 50 51 50 56 56 49 48 52 52 52 50 49 46 43 41 42 42 34 33 34 33 33 32 31 32 30 31 28 30 28 34 34 34 36 37 38 40 40
49 50 49 49 49 49 49 49 49 49 49 49 50 50 50 50 50 51 51 54 51 40 47 46 46 49 51 51 51 42 41 45 44 44 38 36 34 36 33 33 32 36 37 33 32 33 33 35 36 37 38 40 42 42
48 48 48 49 49 48 49 49 49 49 49 49 49 49 49 50 50 51 51 53 51 42 34 42 48 48 50 50 50 50 48 49 48 46 36 34 34 40 35 35 35 37 37 35 34 35 35 36 37 38 41 44 42 39
47 47 47 47 47 48 48 48 48 48 48 49 49 49 49 50 50 50 52 53 54 49 37 38 45 46 48 49 48 49 49 48 43 38 35 35 36 37 36 35 35 38 36 35 33 36 37 37 38 40 40 38 36 36
47 47 47 47 47 47 47 47 47 48 48 49 49 49 49 49 49 49 44 50 53 53 40 35 43 42 44 45 45 45 47 47 46 40 36 39 42 38 33 35 36 36 37 38 38 39 38 39 37 39 38 35 30 34
46 47 46 46 46 46 46 47 47 47 48 48 48 49 49 49 50 46 42 46 50 51 36 35 35 40 41 41 44 44 45 45 44 40 37 38 39 41 33 35 36 37 38 38 38 38 37 36 31 31 29 29 31 34
45 47 46 45 45 46 46 47 47 47 47 48 48 48 48 49 47 44 46 48 49 43 38 35 34 35 40 35 36 41 36 38 39 39 36 36 38 35 33 37 37 37 36 35 36 34 32 30 29 27 27 29 29 33
45 46 46 45 45 45 45 46 47 47 48 48 48 47 45 44 40 42 47 46 46 42 35 33 32 33 40 39 37 36 37 33 37 34 35 37 34 33 37 37 35 35 35 32 30 29 28 28 28 29 28 27 31 33
45 45 45 45 45 45 45 46 46 46 46 46 45 40 34 39 46 46 42 36 35 34 33 32 36 34 39 35 33 33 33 32 31 33 36 33 33 34 34 34 35 29 29 30 28 28 27 27 27 27 28 29 33 32
45 45 45 44 44 45 45 46 46 45 44 43 38 35 42 46 43 37 32 32 32 31 32 34 35 34 38 34 33 33 32 32 29 26 27 24 27 31 32 32 29 29 28 28 28 27 24 24 24 26 29 30 31 31
46 45 45 45 45 45 45 46 46 42 43 42 42 44 42 38 34 32 31 32 31 28 33 33 34 36 35 38 33 33 31 31 24 29 29 23 28 29 29 27 29 29 29 29 26 25 25 25 27 29 30 29 29 30
45 45 45 45 44 44 45 42 42 43 44 42 37 33 34 32 28 23 23 29 26 31 34 33 33 33 34 34 32 31 28 26 32 28 23 25 30 28 28 29 28 29 27 26 27 28 29 29 30 29 30 28 26 31
45 45 44 44 44 43 42 41 42 42 40 32 30 20 23 24 24 27 27 31 32 33 33 33 33 30 32 29 29 25 25 28 25 21 18 25 29 30 29 31 29 28 25 25 27 28 27 27 27 27 25 27 31 27
44 44 44 44 43 42 42 42 41 41 36 27 29 19 25 28 32 32 33 33 33 34 33 31 30 28 24 22 26 21 18 20 19 17 23 27 28 27 28 27 25 25 25 24 28 26 25 26 27 28 27 27 29 27
43 42 41 44 43 43 42 40 40 39 33 31 29 24 28 27 30 30 31 33 34 32 30 28 23 17 16 20 17 17 15 15 17 23 26 26 27 27 27 26 26 28 29 29 29 29 28 27 26 28 30 31 31 29
39 38 43 43 42 41 40 39 35 31 27 26 21 28 32 29 31 31 32 31 34 26 20 21 14 15 22 15 16 23 17 19 23 25 27 26 26 26 27 26 25 27 28 27 26 28 29 29 26 31 30 31 31 29
38 41 42 41 39 40 38 36 30 26 22 25 21 23 24 26 30 31 31 31 31 25 24 19 24 14 11 9 12 18 22 23 25 25 26 26 26 27 27 27 27 26 26 26 27 28 28 24 29 30 31 32 28 28
39 40 41 40 39 35 28 28 32 24 23 25 27 27 26 26 27 27 29 28 28 28 24 20 13 14 16 19 16 20 22 23 25 26 26 26 26 27 27 27 28 27 27 27 27 28 28 30 31 31 33 29 29 28
40 40 40 40 39 30 28 27 33 26 24 26 26 24 25 25 26 30 31 32 28 25 21 20 19 21 21 24 26 25 25 26 26 25 26 26 27 27 27 27 27 28 28 28 28 26 30 31 31 32 31 30 30 29
37 39 39 39 36 35 29 26 27 28 26 24 26 26 23 25 23 29 25 30 28 26 21 24 23 23 24 26 26 27 27 26 26 27 28 27 26 27 27 28 28 28 28 29 30 31 31 32 33 31 32 32 32 31
37 38 35 36 32 30 27 29 26 26 24 23 22 24 18 17 18 21 25 26 24 24 24 23 23 24 25 26 26 27 28 29 29 27 25 25 26 27 29 30 29 30 31 31 31 32 32 33 32 32 32 32 26 27
37 36 33 32 27 26 20 29 20 24 17 17 20 17 15 17 22 27 18 24 25 26 26 26 26 27 27 28 27 27 27 26 26 26 27 27 30 28 28 30 31 32 31 31 33 32 33 33 32 31 29 29 26 29
37 31 27 26 20 14 24 24 26 21 18 16 15 12 17 18 22 17 16 18 23 25 26 26 26 26 26 26 26 26 27 28 27 26 27 27 26 29 28 31 31 31 33 33 33 33 32 32 30 28 28 30 29 28
27 27 28 22 23 20 21 18 20 16 11 14 12 10 15 19 12 11 11 18 19 22 25 26 27 27 26 24 26 27 27 29 27 27 26 26 24 29 29 30 32 32 32 33 32 32 32 32 28 29 28 29 28 27
23 25 23 18 22 20 17 9 13 13 12 10 13 17 17 13 9 10 19 18 20 24 24 24 24 24 26 28 26 25 26 27 26 24 26 28 29 29 28 28 28 29 32 33 32 31 31 29 27 26 26 29 28 27
22 21 24 27 25 23 17 18 20 16 10 12 12 13 15 14 9 16 22 24 26 26 28 30 31 28 28 28 28 27 25 25 26 28 30 30 29 29 29 28 27 28 32 33 32 31 30 28 28 28 29 29 28 25
21 21 18 20 21 22 17 14 13 13 14 20 17 11 10 11 13 22 26 28 27 29 29 30 31 31 30 28 26 23 29 29 30 30 30 29 29 29 31 30 32 32 30 33 32 31 32 32 31 30 29 28 27 27
20 23 22 15 16 17 17 16 17 21 23 21 16 13 15 21 21 23 25 28 31 29 25 25 25 30 32 27 27 29 29 30 29 26 25 25 19 22 26 29 31 31 31 31 31 31 32 32 31 31 29 27 28 28
18 25 18 13 13 14 18 23 19 22 26 27 27 26 26 27 28 30 30 30 29 30 28 29 31 30 28 28 27 28 30 31 32 29 23 17 21 27 29 30 30 31 32 32 30 26 29 30 30 29 27 26 26 24
23 22 17 18 17 21 24 26 28 24 22 25 28 27 25 27 28 25 22 27 28 30 29 28 28 29 28 28 27 26 25 27 23 24 24 25 29 30 29 29 27 24 27 28 27 27 27 27 27 26 25 24 23 22
20 19 21 18 19 23 27 24 21 21 22 22 26 27 28 28 26 24 19 22 24 24 24 25 24 24 26 23 27 25 22 20 18 18 14 14 19 22 26 27 28 27 26 24 25 25 25 25 25 24 23 21 20 19
20 22 23 23 23 16 17 20 17 17 20 21 22 24 24 23 23 19 20 21 21 18 18 19 20 21 25 22 24 23 20 19 18 20 19 18 15 17 17 17 20 24 26 26 24 24 23 21 20 20 20 17 13 11

GFSWCAN_sfc_dewp_012.txt.gz
Dewpoint
51 50 50 50 50 50 50 50 50 50 50 50 50 50 50 50 51 51 52 54 50 42 46 47 48 44 44 41 34 39 38 36 36 33 32 28 31 29 28 30 27 25 25 28 26 26 24 34 34 30 32 36 36 37
51 50 49 49 49 50 50 50 50 50 50 50 50 50 50 50 50 51 48 54 53 47 45 51 51 52 49 46 44 41 40 39 38 34 34 31 31 32 30 29 33 30 30 27 28 27 32 35 35 36 37 37 38 41
50 50 50 49 49 49 50 50 50 50 50 50 50 50 50 50 50 50 49 51 49 39 44 45 45 47 51 51 50 40 37 44 42 41 36 35 33 34 33 33 34 34 36 31 32 32 33 35 36 37 38 40 42 41
48 49 49 49 49 48 49 49 49 49 49 49 49 49 49 50 50 50 49 50 48 42 34 41 46 46 50 49 49 49 46 47 47 45 36 34 34 40 35 38 36 38 39 36 35 36 36 36 37 40 42 39 39 38
47 47 47 48 49 49 48 48 48 48 48 49 49 49 49 50 50 49 50 51 51 47 36 37 44 45 47 48 48 49 49 47 42 37 35 35 36 36 35 35 35 39 36 35 34 36 37 37 39 41 38 37 37 33
47 47 46 47 47 47 48 48 48 48 48 48 49 49 49 49 49 50 45 49 51 52 40 35 43 42 44 45 46 45 47 47 45 39 35 38 41 38 34 34 35 37 38 39 39 41 40 40 37 36 35 33 32 32
46 46 46 46 46 46 47 47 47 48 48 48 49 49 49 48 50 47 43 46 50 52 36 35 35 39 39 40 42 43 44 43 43 40 37 38 39 41 33 35 37 38 38 39 39 40 38 37 35 35 33 32 31 34
46 46 45 45 46 46 46 47 47 47 47 48 48 48 48 48 48 44 46 48 50 44 38 34 34 35 40 33 34 39 36 37 38 39 36 36 37 35 34 36 38 38 38 38 36 37 37 30 30 30 29 29 29 30
46 46 45 45 45 45 46 46 47 48 47 48 48 47 45 44 40 42 46 46 45 43 35 33 33 33 41 38 36 34 34 33 36 33 35 37 33 34 37 37 38 38 36 32 30 30 30 30 29 27 26 27 29 31
45 46 45 45 45 45 46 46 46 47 47 47 45 40 34 39 47 46 41 36 35 34 34 32 35 34 39 34 33 33 33 32 31 33 37 33 34 35 35 36 36 31 30 30 31 30 28 27 25 23 24 27 30 30
45 45 45 44 45 45 45 46 45 45 44 42 37 35 42 46 42 37 32 33 32 31 32 33 34 34 38 34 33 33 32 32 28 26 31 27 28 31 31 29 31 31 32 31 30 29 24 25 25 26 27 28 29 29
45 45 45 44 45 45 45 46 44 43 42 42 41 43 41 37 34 32 30 31 30 27 32 31 33 36 34 38 33 32 30 30 23 25 25 24 26 28 28 29 29 29 29 27 27 27 27 27 28 28 28 29 28 28
45 45 45 45 44 45 46 43 43 43 43 39 36 34 31 32 25 20 25 27 27 32 34 33 32 33 34 34 32 24 24 20 29 27 22 23 29 29 31 31 30 29 27 27 29 30 30 29 28 27 27 27 26 26
45 45 45 44 44 44 41 42 42 41 37 31 25 23 23 22 24 24 26 31 32 33 33 33 32 29 29 24 29 25 24 27 22 21 18 24 27 28 27 28 25 24 23 23 26 27 27 26 26 25 23 25 22 30
45 45 45 44 43 42 41 41 41 40 34 24 24 19 24 28 30 31 32 32 33 33 31 26 26 26 23 19 27 23 17 21 21 16 21 26 27 27 26 27 26 25 24 24 27 26 24 24 23 25 26 24 28 30
44 42 42 43 43 42 41 41 40 36 33 24 25 24 25 27 28 30 31 32 32 27 27 26 20 16 15 16 14 16 14 13 16 18 24 26 26 26 26 27 27 27 26 27 27 27 26 24 25 26 26 30 32 31
40 39 44 43 42 41 41 38 33 28 21 21 19 27 29 26 23 30 29 30 33 29 18 17 14 14 19 11 13 21 14 17 22 24 27 27 25 25 26 27 25 26 27 27 26 26 26 26 25 28 26 30 29 30
39 42 43 41 40 39 38 34 27 23 22 22 19 19 21 22 27 23 30 32 31 27 22 18 23 13 11 9 11 17 20 23 25 25 25 26 26 26 26 26 27 27 27 27 27 26 26 25 25 28 30 31 31 30
41 40 40 41 39 33 27 31 29 20 21 21 23 23 22 20 22 25 23 28 32 29 22 18 9 11 13 17 12 15 16 19 24 24 24 26 26 27 27 27 28 27 27 27 27 27 28 28 28 30 30 32 31 29
41 41 40 40 39 29 27 23 30 24 21 24 22 21 21 21 21 19 29 31 31 29 28 24 18 19 20 22 24 23 24 25 24 23 24 25 27 27 28 27 27 27 27 28 28 25 28 29 28 30 31 32 29 28
39 40 40 38 34 30 25 23 21 24 25 23 24 24 20 19 18 21 28 27 28 26 24 25 24 25 25 25 25 26 26 26 25 26 25 26 27 26 26 27 28 28 27 28 29 30 30 29 31 33 33 31 32 32
37 38 34 36 29 24 22 25 23 24 21 21 20 21 15 12 12 23 22 28 27 24 24 23 23 24 24 24 24 26 27 27 28 28 26 26 25 25 26 27 24 28 29 31 30 31 31 32 33 32 32 31 30 28
36 34 30 30 20 18 15 26 18 22 16 14 16 13 10 10 17 24 16 23 24 26 26 26 25 26 26 27 27 28 28 28 27 26 26 25 26 25 24 25 22 29 29 29 31 32 32 33 33 32 32 30 28 24
35 28 25 23 18 10 17 24 21 18 11 13 10 8 13 13 18 12 12 14 22 24 25 25 26 26 26 27 26 26 27 27 26 25 25 24 24 25 24 28 29 29 30 31 32 32 32 33 30 28 26 27 26 28
18 22 23 21 21 19 17 10 15 11 9 7 6 5 11 13 9 5 9 17 17 19 22 24 25 26 25 25 25 26 26 27 26 25 24 23 20 22 26 28 29 29 29 30 30 32 32 32 30 29 28 26 26 27
13 19 22 20 13 14 14 6 6 10 4 5 8 12 6 6 5 8 16 16 14 19 15 18 21 20 25 27 26 25 25 25 25 22 24 25 24 26 27 26 26 27 26 31 31 30 31 30 30 28 25 25 25 25
15 15 20 24 23 20 10 8 13 8 5 6 7 6 7 11 8 14 21 22 22 22 25 25 27 27 27 27 26 27 23 24 25 27 29 29 30 28 28 27 26 27 30 31 30 30 31 30 29 29 27 28 28 28
18 13 18 17 19 19 13 7 6 9 10 16 12 7 11 11 12 19 22 25 24 27 27 28 28 29 27 24 22 22 23 23 24 28 28 23 24 22 21 28 30 30 31 32 31 31 31 30 30 30 29 29 29 28
24 19 20 17 16 20 23 17 13 17 21 18 11 7 11 18 18 19 22 25 26 27 25 24 25 25 30 30 26 28 27 27 27 25 25 25 22 17 19 27 28 29 30 30 29 30 31 31 31 31 31 30 30 29
19 23 21 12 14 15 16 18 14 15 18 23 22 21 21 20 23 26 26 24 19 25 23 23 28 30 29 28 27 26 28 29 29 26 21 16 17 21 29 28 28 29 29 30 26 23 24 25 28 29 27 27 26 25
12 10 9 7 9 13 18 15 12 14 12 18 22 22 23 24 18 21 18 24 27 28 28 27 27 27 25 25 25 24 23 18 18 17 14 14 16 20 24 26 28 21 12 13 15 18 21 20 23 24 24 23 23 22
7 11 11 14 18 17 18 19 17 17 16 10 21 12 12 14 18 16 18 16 19 18 18 19 19 18 20 18 19 19 16 14 15 14 14 12 14 15 16 17 20 22 16 13 13 15 17 19 19 18 19 19 19 16
8 6 7 7 7 10 12 14 13 10 5 13 18 19 19 16 19 15 15 18 15 13 13 15 16 18 19 21 20 19 17 18 19 20 18 16 14 13 12 13 14 16 17 15 13 13 10 11 11 11 10 9 8 6

GFSWCAN_sfc_dewp_015.txt.gz
Dewpoint
51 50 50 50 50 50 50 50 50 50 50 50 50 50 50 50 50 51 50 52 48 41 43 46 46 43 43 39 35 38 37 35 35 30 26 26 20 28 28 29 27 25 24 24 26 25 22 32 34 30 33 34 36 36
50 50 49 49 49 49 50 50 50 50 50 49 50 50 50 50 50 50 49 52 52 47 44 50 50 50 48 44 42 40 39 37 38 35 33 30 31 28 27 29 31 29 29 27 28 28 32 33 35 36 37 37 36 38
50 50 49 49 49 49 49 49 49 49 50 49 50 50 50 50 50 50 49 50 48 39 44 44 44 46 51 50 48 41 36 42 40 40 35 34 33 33 30 32 33 36 37 33 32 32 32 36 37 37 38 39 40 40
48 49 49 49 49 49 49 49 49 49 49 49 49 49 49 50 50 50 48 48 47 42 34 40 44 45 49 50 49 47 45 45 45 40 34 34 34 39 35 37 36 37 38 36 35 37 37 37 39 40 42 41 38 37
47 47 48 48 48 49 48 48 48 48 49 49 49 49 49 50 50 50 49 51 51 48 37 38 42 45 46 48 47 47 47 45 42 36 34 35 36 36 35 35 35 39 36 35 34 37 38 38 42 43 37 37 36 35
47 47 47 47 48 48 48 48 48 48 48 48 49 49 49 49 50 50 45 50 52 51 39 35 42 41 43 44 46 46 47 46 44 39 35 37 39 38 33 33 36 37 39 40 39 39 41 42 38 38 35 35 35 34
46 46 46 46 46 47 47 48 48 48 48 48 48 49 49 49 51 47 44 46 50 51 36 35 35 38 39 40 42 43 43 42 43 39 36 38 38 41 33 35 37 38 39 40 41 41 39 36 36 37 35 34 36 33
46 46 46 46 46 46 46 47 47 48 48 48 48 48 48 48 48 45 46 48 50 45 39 34 34 36 38 32 34 40 36 37 36 39 35 35 36 35 34 38 38 38 38 38 37 37 35 35 32 28 27 27 28 29
46 45 45 45 46 46 46 47 47 47 48 48 48 47 46 44 41 43 46 46 45 43 34 33 33 33 41 37 36 34 36 33 36 33 34 36 34 34 37 37 37 38 36 33 30 29 29 25 26 27 27 23 24 26
45 45 45 45 45 46 45 47 47 47 48 47 44 41 34 39 46 46 41 37 36 34 34 33 35 34 39 34 33 34 33 32 32 33 37 33 33 35 30 32 31 30 31 31 30 32 30 27 28 27 24 24 26 28
45 45 45 45 45 46 45 45 46 46 45 41 37 34 42 46 41 36 33 33 33 32 32 33 34 34 37 34 33 33 32 32 27 25 31 26 24 28 28 28 30 30 30 31 32 32 29 25 24 26 27 28 28 29
45 45 45 45 45 45 46 44 43 43 42 41 41 43 41 37 34 33 31 31 30 28 32 32 33 36 34 37 33 32 30 30 18 26 28 23 26 28 30 31 32 31 30 29 28 27 28 28 30 30 29 28 27 27
45 45 45 45 45 45 44 43 44 44 41 39 36 34 33 31 27 21 25 26 27 30 33 33 32 33 34 34 32 29 26 24 29 25 21 23 28 29 29 30 29 28 26 25 25 27 29 29 29 26 27 26 25 26
45 45 45 45 45 43 43 42 42 39 34 28 27 25 19 20 25 23 22 27 32 33 34 33 31 29 30 21 28 24 22 26 23 18 18 25 27 27 27 27 25 24 24 24 24 25 25 25 25 24 22 23 22 23
45 45 45 44 44 42 42 42 41 38 30 25 20 13 23 26 30 32 32 33 33 33 31 27 29 26 27 19 26 24 20 20 21 16 20 26 27 26 25 26 26 25 24 23 25 25 24 23 23 24 24 23 23 23
45 43 42 43 42 42 41 39 37 32 30 23 19 21 28 28 27 30 32 32 33 31 27 24 16 12 14 14 16 19 13 13 15 17 23 26 25 25 25 26 26 26 26 26 26 26 26 24 23 25 25 24 25 27
41 40 43 42 42 41 40 36 31 27 21 17 17 27 19 24 18 24 30 29 30 28 16 17 13 12 18 9 10 20 13 16 20 22 25 26 26 25 26 26 25 26 26 27 27 27 27 27 25 23 23 27 27 27
39 42 42 42 40 40 38 32 24 21 20 20 17 16 22 18 29 30 27 26 30 28 21 17 21 10 7 8 10 16 19 21 23 23 25 26 26 26 26 26 27 27 27 27 26 26 26 25 25 27 28 28 28 31
42 41 41 40 37 33 30 32 28 18 19 19 21 21 19 17 19 24 20 25 32 30 26 16 8 10 13 17 12 12 13 17 23 22 23 25 26 26 26 27 27 27 27 26 27 27 28 28 29 29 30 30 30 31
41 41 41 40 36 30 23 25 28 24 20 23 21 20 20 20 20 23 21 21 29 30 28 24 17 18 18 21 22 22 23 23 23 22 23 24 26 26 27 27 28 27 27 27 27 23 28 29 29 30 31 32 31 30
39 39 39 37 33 28 25 22 21 23 24 22 23 22 18 17 20 16 25 30 28 27 25 25 23 24 25 25 25 25 25 25 24 24 24 25 27 27 27 27 26 25 24 24 28 28 29 30 30 32 32 32 32 31
38 39 34 33 25 20 21 24 22 22 20 19 18 19 10 9 12 24 21 27 27 25 25 23 23 24 24 25 24 25 26 26 27 27 25 26 26 26 25 24 22 21 24 28 28 27 29 31 32 33 32 32 31 28
36 33 30 26 17 12 12 24 16 21 14 13 14 12 9 9 16 23 20 24 23 26 25 25 25 26 26 25 26 26 27 27 27 27 26 26 25 25 23 23 21 20 26 27 29 29 30 31 32 32 32 31 29 28
33 26 18 18 12 10 13 23 20 16 10 13 9 7 11 10 15 10 12 14 23 25 26 25 26 26 25 26 26 26 27 27 26 24 24 22 23 24 23 24 23 24 27 28 29 29 31 32 32 29 27 28 27 27
17 20 14 17 22 16 10 10 10 13 11 5 5 3 9 10 8 3 9 17 14 17 21 23 24 25 24 23 23 25 25 26 25 24 25 22 19 19 24 25 23 26 25 23 26 28 31 30 32 30 28 28 25 24
10 16 20 14 18 10 11 7 12 8 1 2 5 9 1 2 3 7 14 15 12 17 15 14 17 17 22 26 25 25 26 26 24 22 24 25 23 25 28 27 25 23 21 25 30 28 28 28 30 30 29 29 27 25
9 16 21 23 22 18 8 5 10 5 2 6 5 3 3 4 5 13 19 21 21 21 23 23 25 26 26 25 25 25 23 21 24 24 23 27 29 29 29 28 26 26 28 29 30 28 28 28 29 30 30 29 29 28
16 15 18 17 16 14 6 2 5 7 9 14 8 6 9 9 12 18 21 23 22 25 27 28 27 28 26 23 21 18 21 26 28 25 21 24 25 21 25 21 20 27 27 28 29 29 28 29 29 29 29 29 29 30
23 20 14 8 10 13 17 14 12 16 20 18 10 7 11 17 17 18 20 21 23 23 21 22 22 17 19 29 30 29 29 27 21 19 23 24 23 19 17 26 27 26 27 27 29 28 26 25 26 27 27 28 30 31
16 22 22 20 19 19 19 21 14 14 16 21 20 20 20 17 18 18 18 18 17 14 16 19 25 25 29 28 27 25 24 23 23 22 17 13 12 11 23 25 27 27 27 22 15 12 18 14 17 19 23 24 25 24
9 7 7 4 7 11 15 11 4 6 7 15 16 20 21 19 12 15 13 13 21 24 23 22 23 20 20 19 17 16 17 14 14 14 15 13 12 12 14 17 21 23 15 8 8 8 9 11 12 13 15 18 18 19
13 9 9 6 10 14 4 9 11 13 17 5 20 9 7 11 11 9 13 13 12 12 10 11 12 13 17 17 16 14 17 18 18 17 16 15 13 13 14 13 13 13 16 16 11 13 12 9 7 9 14 11 10 9
-1 -5 -7 -4 3 9 6 6 4 5 -0 3 14 14 11 12 11 12 13 14 12 12 12 14 15 16 17 17 16 16 18 18 18 19 19 16 12 11 10 8 7 8 10 10 10 7 5 1 0 2 3 3 3 2

GFSWCAN_sfc_dewp_018.txt.gz
Dewpoint
50 50 50 49 49 50 50 50 50 50 50 50 50 51 51 50 49 51 50 51 46 39 42 45 44 41 41 38 34 37 37 34 35 31 28 26 19 28 27 28 26 25 23 23 25 25 21 30 32 28 32 35 35 36
49 50 49 49 49 49 50 50 50 50 49 49 50 50 50 50 50 50 48 50 49 45 42 47 48 47 44 42 41 38 38 36 37 34 32 28 25 24 26 28 31 28 30 28 29 27 32 32 35 35 37 37 37 38
49 49 49 49 49 49 49 49 49 49 49 49 49 50 50 50 51 50 48 48 46 39 42 43 42 46 50 49 46 39 35 41 38 39 33 32 27 30 30 30 31 33 35 32 32 32 33 37 38 38 38 38 41 41
48 48 48 49 48 49 49 49 49 49 49 49 49 49 50 50 50 50 48 47 46 41 34 39 43 43 47 49 48 46 44 44 41 39 34 33 33 37 34 36 35 37 37 35 35 37 38 38 39 41 42 39 38 38
47 47 47 48 48 48 48 48 48 48 49 49 49 49 49 50 50 49 48 49 50 46 36 37 42 44 45 47 46 45 45 43 41 36 34 35 35 36 35 35 34 39 37 35 34 36 38 40 41 39 36 35 32 34
46 46 46 47 48 48 48 48 48 48 48 49 49 50 49 49 50 51 46 50 50 51 40 35 41 39 41 43 44 44 45 43 43 39 35 38 41 38 33 33 37 38 40 40 38 40 40 39 37 35 32 32 33 34
46 46 46 46 47 48 47 47 48 48 48 48 48 49 49 49 51 48 44 44 50 50 37 35 36 35 37 40 41 41 44 44 43 38 35 37 38 40 33 35 36 38 39 39 41 40 37 37 36 35 34 32 29 27
45 46 46 46 46 47 47 47 47 47 48 48 48 48 48 49 48 46 46 48 50 44 39 34 34 35 37 33 34 40 36 37 37 39 35 34 36 34 34 37 37 37 38 33 29 32 35 33 28 23 23 23 23 23
45 45 45 45 46 46 46 47 47 48 48 48 48 48 46 45 41 43 46 47 46 44 34 33 34 33 41 37 35 35 35 33 35 33 34 36 33 33 31 31 32 32 34 30 32 29 28 27 25 25 25 25 22 23
45 45 44 44 46 46 46 47 47 47 47 47 45 41 35 39 46 46 42 38 36 35 34 33 35 34 39 33 33 34 33 32 30 33 34 33 33 28 29 30 31 30 30 30 30 30 29 28 28 26 25 25 25 25
45 45 44 44 46 45 46 46 47 46 45 42 37 35 42 46 42 37 34 33 33 32 33 34 34 34 37 34 33 33 33 32 26 24 30 29 28 27 29 31 30 29 29 30 30 29 29 30 27 26 27 28 28 27
46 45 44 44 45 46 45 45 45 43 42 42 42 43 40 37 34 34 32 31 31 29 32 32 33 35 34 37 33 32 30 30 23 26 25 18 26 28 30 28 28 28 27 26 26 26 26 26 28 28 28 28 27 27
45 45 44 45 45 45 44 44 44 44 41 38 36 34 32 31 29 28 22 26 28 30 33 33 32 32 33 34 31 30 25 20 28 21 19 22 27 30 30 28 26 27 26 25 24 24 25 25 25 24 25 25 24 25
45 44 45 45 45 43 43 43 41 38 34 30 28 28 25 25 25 23 23 26 29 32 33 33 31 30 30 28 28 24 24 25 20 15 16 23 27 27 26 25 24 23 23 23 25 25 25 24 24 24 23 23 22 22
45 44 45 44 43 43 42 41 40 36 31 26 22 18 22 24 28 31 32 33 32 33 32 30 28 25 26 21 25 23 21 18 17 14 17 26 27 26 25 25 24 24 23 23 26 25 23 22 22 23 25 23 23 22
45 44 42 43 42 42 40 38 35 33 27 22 20 22 26 28 27 29 32 31 33 31 29 26 16 14 16 19 19 19 16 13 14 15 23 25 25 25 25 25 25 25 26 26 26 26 26 23 23 26 26 25 24 23
42 40 44 43 41 40 39 34 31 27 23 17 19 27 21 20 22 19 31 31 32 28 24 14 10 10 16 10 13 17 11 14 18 21 24 25 24 25 25 25 24 25 26 26 27 27 26 26 24 22 24 27 26 27
41 43 43 42 40 39 37 31 25 23 20 23 19 17 27 21 22 19 27 26 26 22 20 19 19 8 6 6 7 14 18 20 21 22 24 25 25 25 25 25 26 26 27 26 25 25 25 23 25 27 27 28 29 30
41 41 41 40 37 32 30 30 28 19 19 21 22 22 20 18 20 25 22 23 29 30 26 21 7 10 12 16 12 11 12 16 22 22 23 24 25 25 25 26 26 27 26 26 26 26 27 27 28 28 28 28 30 31
41 40 39 37 35 28 22 28 28 23 21 23 22 21 20 20 24 25 23 19 24 25 26 24 17 17 18 20 21 20 21 22 22 21 22 24 25 25 26 26 27 27 27 26 25 21 25 27 28 27 26 30 31 31
39 38 37 35 29 27 24 21 21 22 24 22 23 21 17 22 24 24 18 24 22 20 20 24 21 23 25 24 24 25 25 25 24 23 23 23 25 26 26 27 27 25 23 21 21 24 25 27 28 29 30 32 32 32
37 38 34 31 23 19 21 23 22 22 19 19 17 18 9 9 15 23 21 25 24 23 25 23 23 24 24 24 25 26 26 26 26 26 23 24 24 23 23 24 20 21 20 21 23 24 27 28 28 30 31 31 32 30
35 32 25 19 14 11 14 23 15 20 13 12 12 12 9 7 13 24 23 24 23 25 26 25 25 26 25 26 26 26 26 26 25 26 25 25 25 24 23 23 21 24 23 25 22 23 26 28 29 30 31 31 31 29
32 21 14 13 10 12 12 21 19 14 9 9 8 7 10 10 16 20 16 13 22 24 25 25 25 25 25 25 25 25 26 26 25 24 24 23 23 24 23 23 20 21 26 26 24 25 26 28 30 30 28 28 26 26
20 17 13 17 21 16 11 18 18 12 7 -0 5 3 7 8 7 6 9 16 13 15 19 21 22 24 23 21 21 23 24 25 24 23 25 23 21 19 21 21 22 26 27 17 25 27 26 27 27 27 28 29 27 25
9 17 10 7 18 9 8 3 13 10 -1 0 9 6 -2 -0 3 7 13 14 11 16 11 12 15 15 20 24 23 22 24 23 22 20 24 23 23 24 22 27 26 27 24 26 27 26 26 27 26 27 26 27 28 28
10 17 22 22 20 15 6 3 8 3 -1 5 3 1 1 4 4 12 18 19 20 21 21 22 22 22 23 24 24 23 20 19 22 24 22 26 29 30 29 27 24 23 24 27 27 27 27 26 25 26 26 26 28 29
13 15 15 20 19 12 5 -0 2 5 7 13 7 5 7 7 10 18 20 22 22 22 23 24 24 24 22 22 21 18 25 25 20 22 20 20 21 20 21 19 19 25 26 27 26 28 27 24 24 24 24 24 25 27
22 19 13 15 10 6 10 11 10 14 18 17 13 9 11 17 19 19 19 18 17 21 19 19 20 16 19 19 18 26 29 28 26 24 19 13 18 20 20 22 25 26 27 26 19 18 17 15 13 11 17 21 23 24
17 13 11 3 8 11 15 19 14 12 14 16 15 18 19 16 13 16 16 19 21 22 24 24 26 26 26 26 23 24 19 20 21 22 16 13 14 15 17 18 21 25 24 22 22 16 14 9 11 10 12 14 16 16
7 7 9 7 8 10 12 3 -1 1 1 9 12 17 19 15 15 14 13 12 14 15 14 12 14 15 14 14 16 16 16 14 13 14 13 12 14 16 16 16 16 16 16 20 17 7 3 0 -0 0 12 7 6 7
17 6 6 3 7 7 -1 1 -1 1 5 1 14 4 4 7 7 11 14 12 10 8 10 10 9 10 15 17 17 17 17 16 14 14 13 14 13 13 11 10 8 5 2 5 3 -1 -4 -6 -4 0 2 3 3 2
-7 -9 -11 -6 1 2 -3 -0 -1 -0 -4 -7 -5 -4 -5 3 2 8 12 13 12 10 9 11 12 14 16 16 15 15 15 15 14 15 15 13 9 7 4 0 -4 -4 -2 -2 -2 -6 -5 -6 -6 -6 -4 -3 -3 -4

GFSWCAN_sfc_dewp_021.txt.gz
Dewpoint
50 50 50 49 49 49 49 49 50 50 50 50 50 51 50 50 50 52 52 51 47 40 43 46 45 41 41 40 38 40 40 38 37 34 34 32 30 32 30 29 28 28 28 27 28 28 25 31 33 32 34 37 37 38
49 49 49 49 48 49 49 49 49 49 49 50 50 50 50 50 50 50 50 50 50 46 43 49 51 50 47 43 42 40 39 38 40 35 33 32 32 29 30 31 31 30 32 31 30 32 34 33 35 37 37 38 39 39
49 48 48 48 48 48 49 49 49 49 49 49 49 50 50 50 50 50 50 49 46 39 43 44 44 47 50 49 47 42 39 41 40 41 37 35 34 33 32 31 33 33 34 34 33 35 35 37 39 41 42 40 39 38
48 47 48 48 48 48 48 49 49 49 49 49 49 49 50 50 50 49 49 48 46 42 34 40 44 44 47 50 50 47 45 43 42 41 34 34 34 38 34 36 35 36 37 37 36 37 38 38 42 40 37 36 33 31
47 46 47 47 48 48 48 48 48 48 49 49 49 49 49 50 50 50 50 50 49 46 36 38 43 44 44 48 49 47 46 45 43 37 34 35 37 37 37 36 35 40 38 36 35 38 40 39 39 38 35 32 30 31
46 46 46 46 47 48 48 48 48 48 48 49 49 49 49 49 50 51 46 49 51 50 39 34 41 41 41 43 46 46 46 45 44 40 36 39 41 39 33 33 37 39 40 40 39 42 40 38 37 36 31 32 29 29
46 46 46 46 46 47 47 48 48 48 48 48 49 49 49 49 51 48 46 45 50 49 38 36 36 38 39 40 41 42 44 46 44 39 35 37 38 40 33 34 38 38 37 35 37 39 37 37 35 34 27 25 25 23
45 45 46 46 46 47 47 47 48 48 49 49 49 49 50 49 48 47 47 48 50 45 40 34 35 35 39 35 36 40 37 39 38 39 35 36 37 35 34 35 32 32 29 28 28 30 30 29 27 26 26 25 25 25
45 44 44 46 46 46 47 47 47 48 48 49 49 49 47 45 42 44 47 47 46 44 35 33 34 34 40 37 37 36 37 34 37 33 34 36 34 33 30 30 30 32 32 29 30 28 27 25 25 26 26 26 25 26
45 44 44 45 45 46 46 47 47 47 48 48 47 43 35 39 46 46 42 38 36 35 34 33 36 34 40 34 33 35 34 33 32 34 35 33 33 28 30 30 30 31 32 31 28 24 25 25 26 28 26 26 26 26
45 45 44 45 45 46 46 47 47 47 46 43 37 35 42 46 42 37 34 34 33 32 33 34 34 34 37 34 34 34 33 33 29 28 32 31 30 28 30 30 30 29 28 28 28 28 28 28 26 26 26 28 28 28
46 45 44 45 46 46 46 46 45 44 43 43 42 43 41 37 34 33 32 32 32 31 33 33 33 35 34 37 34 32 32 31 25 29 28 24 26 30 30 28 28 29 26 25 25 24 25 25 26 27 27 27 27 27
45 44 44 45 46 45 45 45 45 45 43 41 37 33 33 32 31 29 26 27 29 32 33 33 32 33 34 34 32 32 27 26 29 25 23 24 28 30 30 29 24 25 25 25 25 25 26 26 26 26 26 27 26 26
45 44 44 45 44 45 45 44 41 39 37 33 33 29 28 27 26 26 26 28 31 33 33 33 31 31 30 30 28 26 26 26 23 19 20 26 29 28 28 26 24 23 24 23 25 26 26 26 26 26 24 25 24 25
44 44 45 43 43 43 43 41 40 35 32 26 27 24 25 26 30 31 33 33 33 34 33 31 29 28 26 26 26 25 23 20 21 20 23 29 28 26 26 26 24 25 24 24 26 26 25 25 25 26 27 27 27 26
45 44 42 43 42 41 40 39 35 34 29 25 24 24 27 28 28 31 32 32 33 31 30 27 22 23 23 23 22 21 19 16 19 22 25 26 26 26 26 26 25 25 25 26 26 27 27 26 25 27 27 27 26 26
43 40 43 42 40 39 38 34 33 27 25 21 23 26 25 23 27 27 32 32 33 31 25 22 16 17 20 17 18 21 17 21 23 24 24 26 25 24 25 25 25 26 26 27 27 27 28 28 26 25 26 28 29 29
41 43 42 42 40 39 36 31 27 25 22 24 22 25 28 27 23 22 29 31 32 25 23 21 20 14 14 13 15 18 22 23 23 24 24 26 26 26 25 25 26 26 27 27 27 27 27 25 27 28 28 28 29 28
42 41 42 41 38 33 30 30 29 21 21 23 24 24 23 24 24 26 28 29 31 30 24 21 15 17 17 18 19 19 19 21 22 22 25 25 26 25 25 26 26 27 27 27 28 28 28 28 28 28 28 28 28 28
41 40 39 37 34 28 25 28 28 24 22 24 24 24 23 25 27 27 28 28 31 27 27 25 21 21 21 21 22 22 22 21 22 23 24 25 26 26 26 27 27 28 28 28 27 23 27 27 28 28 27 28 29 29
38 38 37 34 30 28 25 23 22 23 25 23 23 23 21 26 26 26 24 26 29 27 25 26 25 25 25 25 25 25 25 25 25 25 25 24 26 26 26 27 28 28 27 26 26 26 24 27 28 29 29 30 30 32
37 37 32 30 24 23 22 24 23 23 20 19 18 19 12 12 20 23 26 26 25 25 26 25 25 26 26 25 26 27 27 27 27 27 25 25 25 26 26 27 26 26 25 26 26 27 28 28 29 30 30 30 32 31
34 31 24 20 17 15 18 23 17 20 13 13 14 13 10 9 15 24 22 23 24 25 27 26 26 26 26 26 26 26 26 26 26 26 26 26 27 27 27 27 26 25 25 28 27 27 28 26 27 28 29 32 29 28
28 22 16 12 11 14 12 12 20 14 11 10 9 8 11 13 20 20 19 18 22 24 25 26 26 25 25 25 25 26 26 27 27 26 26 25 25 26 26 26 25 25 27 29 28 27 27 28 27 27 27 27 28 28
20 17 13 17 20 13 6 17 19 19 8 8 12 9 7 13 9 14 16 18 17 19 21 21 22 25 23 23 23 23 24 26 25 25 26 25 25 25 26 25 25 27 30 29 27 28 28 28 27 27 28 27 27 27
8 18 10 6 16 8 10 11 13 15 11 8 12 6 1 3 6 10 14 17 16 18 16 17 19 18 20 23 23 23 25 26 25 25 26 26 25 25 25 26 27 27 27 28 28 27 26 27 27 27 26 26 25 25
14 17 20 21 18 13 5 4 8 4 9 8 5 1 3 5 5 13 18 20 21 22 22 22 22 22 22 24 24 25 24 23 25 26 25 28 29 30 30 28 27 27 27 27 27 27 26 26 25 25 24 25 25 25
11 18 13 20 18 12 3 -1 4 11 8 12 7 6 7 8 11 18 20 22 22 24 25 24 24 24 25 24 24 23 24 22 25 27 26 26 23 22 23 24 25 25 26 28 28 25 23 21 21 23 23 23 23 24
21 16 16 18 17 17 9 11 11 14 17 14 11 8 11 17 16 15 17 17 20 23 23 23 24 23 24 24 22 25 26 27 27 25 23 23 21 22 19 20 22 26 27 25 25 25 23 22 21 20 19 18 18 17
20 21 14 14 11 10 14 16 12 11 14 16 16 17 18 13 12 13 12 12 12 12 14 15 17 17 17 17 17 19 18 17 17 19 20 19 17 16 16 17 17 18 20 20 22 20 18 16 15 15 13 12 11 11
14 14 12 10 7 9 8 -1 -3 -0 -1 7 4 13 13 9 11 11 10 11 11 10 9 8 10 12 13 13 14 15 17 17 17 16 16 16 14 14 13 12 13 13 14 19 17 14 11 8 8 10 8 6 5 5
17 16 9 13 7 2 -3 -1 -5 2 -3 -2 1 -4 2 5 2 6 10 8 7 5 6 8 7 9 13 17 16 16 15 15 14 14 13 12 12 10 9 8 6 7 8 7 6 5 3 3 3 3 3 2 1 0
-9 2 1 -6 0 -0 -3 -2 -1 0 -3 -5 -6 5 -6 -3 -4 3 6 9 8 7 5 7 10 14 13 12 11 11 11 11 11 9 8 9 5 3 3 1 0 1 3 3 1 1 0 -0 -1 -1 -2 -3 -3 -4

GFSWCAN_sfc_dewp_024.txt.gz
Dewpoint
50 50 50 49 49 49 49 49 50 50 50 51 51 51 50 50 50 54 55 55 51 48 45 47 45 43 42 43 46 45 45 45 43 37 37 37 36 36 33 30 32 32 35 33 33 31 29 31 32 33 37 39 38 40
49 49 49 49 49 49 49 49 49 49 50 50 50 51 50 50 50 52 53 54 54 51 48 51 52 50 48 44 44 47 43 43 46 43 39 39 36 34 39 34 32 32 32 32 31 32 34 35 35 37 40 41 41 38
48 48 49 49 48 48 49 49 49 49 49 50 50 51 50 50 50 52 53 54 52 50 48 49 48 49 51 50 49 47 48 44 44 46 45 41 35 40 34 36 35 34 35 36 36 33 34 37 39 42 41 39 39 38
47 47 47 48 48 48 48 48 48 49 49 49 49 50 50 50 50 52 55 53 52 46 37 46 45 45 47 51 51 50 47 47 46 47 38 38 38 41 41 38 37 36 35 35 36 36 38 38 41 39 37 37 34 29
46 46 46 47 48 48 48 48 48 48 49 49 49 50 50 50 50 55 56 55 54 51 43 46 46 45 45 48 50 49 49 48 46 41 38 40 45 41 41 39 37 37 36 37 37 39 40 40 38 38 34 28 25 25
46 46 46 46 47 48 48 48 48 48 48 49 49 50 50 50 50 55 51 55 55 54 47 41 46 44 43 46 48 49 48 50 48 46 40 45 43 44 34 36 38 39 39 41 40 41 40 37 37 33 27 25 24 25
46 46 46 46 46 47 48 47 48 48 48 49 49 49 49 49 55 51 48 50 51 54 43 39 41 42 41 43 44 45 47 48 48 45 40 43 43 43 35 34 38 35 34 35 40 39 37 38 34 28 26 25 25 20
45 45 46 46 46 46 47 47 47 48 48 48 49 49 48 48 48 52 51 50 52 48 46 36 38 41 41 42 40 42 42 42 42 43 37 39 39 38 34 36 33 32 30 30 32 36 36 30 27 26 22 20 20 18
45 44 45 45 45 46 47 47 47 48 48 48 49 49 49 47 44 46 46 48 49 48 37 35 37 36 41 39 40 41 41 36 40 36 36 38 35 35 35 32 31 32 32 31 29 27 23 21 17 18 18 18 20 21
45 45 44 45 45 46 46 47 47 48 48 48 48 45 36 41 47 47 45 40 38 36 35 34 39 37 42 39 38 39 38 36 34 35 36 34 34 30 31 32 32 31 31 31 27 17 17 19 18 20 21 22 23 23
45 45 44 45 45 46 46 46 47 48 47 43 38 35 43 46 43 38 34 35 34 33 34 35 35 36 39 36 34 36 34 34 32 33 35 33 31 31 30 27 27 26 24 19 20 20 19 21 22 24 24 26 27 27
45 45 44 45 45 46 46 46 46 45 44 43 42 43 41 38 34 33 32 32 33 34 34 34 34 36 35 38 35 33 33 33 30 33 32 29 30 31 28 25 27 27 21 19 19 20 21 23 26 27 27 27 29 30
45 45 44 45 45 46 45 46 45 44 44 43 35 33 33 32 32 32 30 32 32 35 35 35 33 34 35 37 33 34 32 31 32 29 27 29 30 30 27 24 23 22 23 25 20 21 24 26 28 30 30 31 32 31
44 45 45 45 45 45 44 45 43 42 40 34 32 30 32 31 32 33 34 35 35 36 35 36 34 35 34 33 33 31 30 30 27 24 28 29 30 31 27 26 23 21 32 27 24 25 30 32 32 32 31 31 30 30
44 45 45 44 44 45 43 42 40 36 36 33 34 29 30 31 34 34 34 36 35 37 37 35 34 35 32 30 31 29 27 25 25 26 30 31 32 29 26 27 25 29 33 28 25 31 33 32 31 31 33 33 32 31
45 45 43 43 42 42 41 41 38 36 34 33 31 29 30 32 31 33 34 33 35 33 33 34 31 31 29 30 27 27 24 22 27 32 33 31 27 26 25 26 25 24 25 25 26 28 29 32 32 30 32 32 32 32
45 41 43 42 40 38 39 37 37 32 31 32 29 32 31 33 33 33 35 36 34 35 32 30 27 25 26 26 25 25 26 30 31 31 28 26 25 23 24 25 30 29 26 27 27 28 29 30 33 31 32 30 31 31
41 43 42 41 42 40 37 34 35 33 27 28 28 31 30 32 32 32 34 35 35 30 28 25 22 23 22 20 23 27 28 30 28 26 24 25 26 27 25 25 25 26 27 28 32 31 30 32 30 29 30 29 30 30
43 42 42 41 40 37 34 35 32 26 27 28 28 29 30 31 29 31 33 34 33 31 30 28 26 23 22 22 29 30 30 30 26 23 24 25 26 26 26 26 27 27 27 28 29 29 28 29 29 30 30 29 28 28
42 40 39 39 37 34 32 31 31 27 26 27 29 28 29 30 30 31 32 34 33 34 32 29 27 28 27 25 24 27 25 25 25 27 25 25 27 27 27 27 27 27 28 29 30 30 30 30 30 30 30 29 30 30
39 39 37 37 33 32 30 29 28 28 27 27 27 28 27 29 30 30 31 32 32 29 25 28 32 31 29 27 26 26 26 27 26 28 27 26 26 28 27 28 28 29 30 32 33 32 32 32 31 30 33 33 33 33
37 37 35 33 31 31 28 28 28 27 27 27 27 27 28 29 28 28 29 29 27 27 27 29 26 26 27 27 27 28 28 28 28 28 29 29 28 28 29 30 31 33 34 35 33 34 34 32 32 31 29 30 31 32
36 34 31 31 27 28 26 28 26 24 24 25 26 26 26 28 26 26 25 24 25 26 26 26 27 28 27 27 27 27 27 27 27 28 29 30 30 31 32 32 32 34 33 32 32 33 34 31 31 31 31 30 30 30
30 28 26 23 25 23 25 25 25 24 25 24 23 18 20 25 24 23 22 25 25 26 26 26 27 25 25 25 25 24 25 27 27 29 30 30 30 30 30 30 31 32 32 31 32 33 33 32 31 31 30 30 30 30
28 23 23 21 23 20 20 21 21 22 20 19 18 21 22 22 23 21 21 23 28 29 28 26 25 25 24 25 25 26 28 26 27 28 30 31 31 32 31 32 32 32 34 32 32 31 30 32 32 31 29 30 27 26
19 21 19 20 21 18 19 18 19 19 19 19 20 19 22 23 19 18 19 27 31 28 32 32 32 27 23 23 24 25 28 29 30 29 29 30 31 33 33 31 30 30 33 32 30 29 27 26 27 27 25 25 25 24
18 19 22 22 20 18 19 19 19 20 18 19 21 19 21 17 17 19 22 24 25 26 27 28 27 26 26 27 27 29 30 31 31 30 31 30 31 32 32 30 29 29 31 31 30 29 27 26 26 26 25 26 25 24
22 22 19 22 21 21 18 19 19 19 21 20 21 18 18 18 18 22 21 19 21 23 24 24 25 23 24 27 27 29 29 30 30 31 30 30 30 29 27 28 29 27 30 31 30 29 28 27 27 26 25 25 24 23
24 24 23 19 20 21 22 22 22 22 21 21 22 21 21 19 16 16 16 17 19 19 18 17 19 21 21 21 23 24 23 23 22 23 25 26 29 25 24 24 25 26 27 27 26 26 25 25 25 24 23 23 22 21
22 26 22 20 19 21 26 26 28 28 24 27 25 24 21 15 13 14 14 15 14 14 15 15 16 16 15 16 17 19 21 20 19 18 18 19 18 20 21 21 21 21 22 24 25 24 21 22 20 21 18 17 17 16
23 25 23 22 21 27 25 20 22 22 24 26 24 25 22 13 13 13 12 13 13 12 12 11 12 15 14 14 14 14 14 16 15 16 16 18 17 17 16 16 17 18 19 21 20 20 18 19 18 16 14 11 10 10
22 21 21 19 22 22 19 21 22 22 21 20 20 20 17 15 9 10 10 11 11 9 8 9 10 11 14 14 14 14 12 13 12 11 11 12 12 12 12 12 13 15 16 16 16 15 13 13 12 11 10 8 6 5
14 15 15 17 19 16 17 15 15 15 17 16 16 14 11 10 4 8 11 11 10 9 8 9 10 11 13 13 12 12 11 12 11 10 8 8 7 6 8 9 10 11 12 12 12 11 9 8 7 6 4 3 1 0

GFSWCAN_sfc_dewp_027.txt.gz
Dewpoint
50 50 50 49 49 49 49 50 50 50 49 51 51 51 50 50 50 54 54 56 52 49 46 46 44 44 44 43 46 46 45 46 48 38 37 40 38 37 34 28 33 33 35 34 35 32 29 31 31 34 38 40 41 40
49 49 49 49 48 49 49 49 50 50 50 51 51 51 50 50 50 52 50 54 55 49 50 52 52 51 49 47 43 48 41 44 44 44 41 43 39 38 39 34 30 31 33 34 34 34 36 35 37 41 41 41 41 38
48 48 49 48 48 48 49 49 49 49 50 50 51 51 51 50 50 52 53 54 52 54 48 48 48 50 51 52 52 47 50 43 46 49 48 43 36 42 35 38 34 33 33 39 37 33 32 37 40 41 40 40 39 38
47 47 48 49 48 48 48 48 48 49 49 50 50 51 51 50 51 53 52 54 51 48 40 48 46 47 48 51 51 51 49 50 49 49 41 40 38 41 42 38 38 36 35 35 36 35 37 41 41 40 38 37 35 29
46 46 47 47 48 48 48 48 48 48 49 49 50 50 51 51 52 54 55 55 54 50 45 48 46 46 46 48 49 49 49 48 50 43 38 40 46 45 44 43 39 37 35 38 37 41 42 40 40 38 35 30 26 26
46 46 46 47 47 48 48 48 48 48 48 49 49 50 50 50 51 53 49 54 54 53 50 43 47 45 45 46 48 48 48 50 50 47 42 46 42 43 36 37 35 36 37 41 39 40 39 38 37 33 31 27 26 25
46 46 46 46 46 47 47 47 47 48 48 49 49 49 50 50 55 49 46 52 51 54 48 41 44 45 43 45 46 46 48 49 47 47 45 45 44 42 39 37 35 38 37 38 39 39 37 36 36 33 29 26 25 19
45 45 46 46 46 46 47 47 47 48 48 48 49 48 48 48 49 52 52 51 52 50 50 36 41 43 43 44 43 44 45 46 47 45 42 43 43 44 37 39 38 36 34 35 38 40 37 35 30 27 21 18 17 17
45 45 45 45 46 46 46 47 47 48 48 48 48 49 51 49 47 52 47 50 53 51 39 35 36 36 43 41 42 43 44 38 43 37 38 41 38 37 38 37 34 33 33 36 33 29 25 21 18 17 17 18 18 19
44 44 44 45 45 46 46 47 47 48 48 48 49 47 37 42 47 48 49 44 42 43 41 37 45 39 41 41 39 39 41 38 34 37 37 34 34 34 34 34 35 35 36 33 31 22 21 19 19 19 19 20 21 22
45 44 44 45 46 46 46 46 47 48 48 44 38 36 44 46 44 40 35 36 35 34 36 39 41 40 42 39 37 40 35 35 33 36 36 35 33 34 33 32 32 32 30 22 22 21 18 19 19 21 23 26 28 27
45 45 44 45 46 46 46 46 46 45 44 43 42 43 42 39 34 35 34 33 34 35 35 34 35 37 36 40 35 33 34 34 32 34 33 29 32 33 32 29 29 27 24 21 19 18 19 18 22 26 28 27 27 30
45 45 44 45 45 46 45 44 45 45 45 42 36 34 34 32 32 32 30 34 33 34 35 34 33 34 34 37 33 33 32 33 34 31 28 30 32 31 30 28 27 26 24 23 18 18 20 23 27 30 31 32 35 32
44 44 45 45 45 45 43 42 42 43 41 34 32 31 32 32 33 35 36 36 36 36 36 35 33 34 34 33 34 33 33 32 29 26 29 32 31 30 29 28 25 24 34 28 26 25 27 34 34 36 34 34 33 32
44 44 45 44 44 43 42 41 40 40 38 33 34 30 31 33 34 34 35 36 36 38 38 36 36 38 34 32 35 32 29 27 26 28 33 32 32 31 30 29 25 25 35 31 25 30 35 35 34 33 34 35 34 34
44 44 44 44 44 42 41 41 41 37 37 35 34 32 33 33 32 33 33 33 37 37 38 37 34 33 32 33 30 30 28 25 30 34 33 32 32 30 28 26 25 24 24 25 25 25 29 35 34 32 33 34 34 33
44 42 43 42 42 42 42 40 39 34 34 34 32 35 34 34 34 34 36 36 37 36 33 34 31 29 30 29 27 28 30 32 33 33 31 30 28 25 23 25 32 28 28 27 27 27 28 30 35 35 33 30 31 33
43 44 42 41 41 40 37 37 37 36 30 30 32 33 33 35 35 34 36 35 36 32 31 28 26 27 26 25 27 32 30 32 32 31 25 24 25 26 26 26 26 26 26 27 31 30 30 34 32 29 27 28 30 32
43 44 42 42 41 39 37 37 36 30 30 31 31 31 33 33 33 34 35 36 35 34 33 31 30 25 25 23 31 33 33 31 26 24 25 26 27 27 28 27 28 27 27 27 28 29 29 28 29 29 30 31 31 31
42 40 38 39 41 38 35 35 35 29 29 30 32 31 32 31 32 33 34 36 34 36 33 30 27 28 28 26 25 27 26 28 25 27 26 25 25 26 28 28 28 28 27 28 29 30 31 30 29 30 32 31 32 32
39 39 38 38 36 34 32 32 31 30 28 28 30 30 30 31 31 31 32 34 34 32 27 27 33 32 31 30 28 28 28 28 25 27 27 26 26 27 27 28 28 29 30 32 36 34 35 35 34 34 34 33 32 31
37 38 37 36 34 34 31 30 30 30 30 30 30 30 31 30 30 30 30 31 29 27 27 28 27 26 26 28 28 28 30 29 29 28 29 29 28 29 29 29 30 34 34 38 35 37 37 34 34 35 34 33 32 33
36 36 35 36 32 33 28 31 30 26 28 28 29 29 29 29 28 27 27 26 27 27 27 26 26 28 29 28 27 27 27 27 27 26 29 29 30 31 32 32 33 36 36 34 34 35 35 33 34 33 33 33 32 32
34 32 30 30 30 26 31 28 27 26 28 27 26 24 24 27 25 26 25 27 26 26 25 25 27 25 25 25 25 22 23 25 26 27 29 30 30 29 29 29 32 34 34 34 35 34 35 33 32 32 32 32 31 31
30 26 28 23 27 25 25 25 24 26 23 24 24 24 25 26 25 23 24 23 32 33 32 30 27 25 23 24 24 25 28 28 28 28 30 32 33 33 32 31 32 34 37 34 33 33 33 32 32 32 30 31 28 26
23 24 24 25 24 23 23 21 22 23 23 22 24 25 28 27 22 21 19 29 31 28 30 30 30 28 26 27 27 28 29 31 31 30 29 31 34 34 34 33 33 35 36 35 33 31 29 28 27 27 27 28 27 26
21 22 25 23 22 22 24 25 24 25 21 21 24 23 24 19 19 20 25 22 24 25 25 25 25 25 24 25 26 26 27 27 28 28 29 30 31 32 33 31 31 33 33 33 32 31 29 27 26 26 26 26 27 27
25 24 21 25 24 25 23 23 23 22 24 23 25 21 19 19 21 22 20 20 22 22 22 22 22 21 22 22 22 23 24 24 25 27 28 30 32 27 27 28 29 28 30 32 31 30 30 28 27 26 26 26 25 25
25 26 25 21 23 25 25 25 25 24 23 25 26 23 26 19 19 19 18 19 21 21 19 19 20 21 21 21 22 23 21 20 18 16 16 19 20 21 24 23 24 25 26 26 27 28 27 26 25 25 24 23 22 23
24 27 25 22 21 22 29 31 31 32 28 31 29 25 20 17 16 17 18 18 17 17 18 18 18 18 17 17 17 18 22 19 17 15 14 14 16 19 19 19 19 20 21 23 24 25 26 24 24 24 20 19 18 18
25 26 25 26 25 28 28 29 29 30 30 30 29 29 22 17 16 15 15 16 16 16 15 15 15 16 15 14 14 14 13 17 15 14 14 14 16 16 16 15 17 17 19 20 21 21 20 21 19 17 16 14 12 12
26 23 24 21 25 27 29 28 29 28 29 27 25 23 19 18 14 14 14 15 14 13 11 12 12 12 13 15 16 16 14 14 14 13 12 11 12 12 12 13 14 15 16 17 19 18 17 16 15 14 13 10 8 8
23 23 22 22 23 21 25 22 19 18 23 22 20 19 17 17 10 13 14 14 13 11 11 11 12 13 14 13 13 15 13 13 12 12 11 9 8 9 9 10 8 8 12 14 15 15 13 11 10 9 7 5 4 2

GFSWCAN_sfc_dewp_030.txt.gz
Dewpoint
50 50 49 49 49 49 50 49 50 49 49 52 52 51 50 50 51 54 56 59 55 50 47 47 45 44 44 46 48 46 45 48 49 37 36 39 38 41 36 29 35 33 34 33 34 33 28 32 34 36 40 41 41 40
50 49 49 49 48 49 49 50 50 50 51 52 52 51 50 50 50 52 52 55 58 52 51 54 52 51 50 49 45 49 43 46 47 44 41 44 38 38 39 37 27 34 37 37 35 35 39 39 41 43 43 41 39 38
48 49 48 48 48 48 49 49 49 50 50 51 52 52 51 50 51 53 54 56 55 56 49 49 49 50 51 52 54 48 53 44 46 50 46 42 34 43 34 39 36 30 31 40 38 34 33 40 42 41 40 40 39 37
47 48 48 48 48 48 48 48 49 49 50 50 51 52 52 51 52 53 53 55 53 50 38 49 47 48 49 51 51 52 50 53 52 49 40 38 37 42 43 39 40 39 37 35 35 34 37 41 41 40 39 37 34 30
47 47 47 48 48 48 48 48 48 48 49 50 50 51 53 52 51 55 56 55 55 51 44 49 46 46 46 48 49 49 50 50 50 42 37 39 48 46 47 44 42 38 35 38 38 41 40 41 40 40 38 32 28 26
46 46 46 47 48 48 48 48 48 48 48 49 50 50 51 51 50 54 49 54 54 54 49 41 48 45 45 46 48 48 48 51 51 46 42 47 43 46 37 38 36 32 34 40 39 41 41 40 39 38 34 28 26 25
46 46 46 46 46 47 48 47 48 48 48 49 49 50 50 50 54 50 47 52 51 55 47 39 45 45 44 45 47 48 49 50 50 48 45 46 46 43 37 37 33 34 37 39 40 39 38 37 36 35 32 27 25 18
45 45 45 46 46 46 47 47 48 48 48 48 48 48 48 48 49 51 52 51 52 51 50 36 41 44 44 46 43 44 45 46 47 45 43 42 44 43 37 39 36 36 36 39 39 40 39 37 35 28 23 18 18 18
45 45 45 45 46 46 46 47 47 48 48 48 48 49 52 51 52 52 48 50 55 51 38 36 36 36 43 42 43 43 45 36 43 37 39 42 38 36 38 38 38 35 35 36 36 32 29 26 21 19 18 18 19 19
44 44 45 45 46 46 46 46 47 48 48 48 50 47 37 44 47 48 51 48 45 44 41 37 44 39 41 41 38 38 40 36 34 37 39 34 35 39 37 37 37 35 37 36 32 26 23 21 20 19 19 20 23 24
45 45 45 46 46 46 46 47 47 48 48 45 39 36 43 46 47 42 38 37 37 35 39 41 44 39 43 37 36 40 35 36 33 36 36 34 33 36 37 35 36 37 36 32 26 23 21 20 19 21 24 29 31 30
46 45 45 46 46 45 45 46 46 45 44 43 42 43 42 38 35 36 34 34 34 36 35 35 37 41 39 43 37 34 34 34 32 37 34 31 33 35 34 33 33 32 27 23 21 19 19 18 21 29 31 31 30 32
45 45 45 45 45 44 44 45 45 45 45 41 37 36 35 32 31 32 31 32 34 34 34 34 33 35 35 37 33 33 32 32 36 32 29 32 33 32 31 30 29 27 27 27 20 20 21 23 27 32 31 32 31 32
45 45 45 45 44 42 42 43 43 43 40 34 32 31 32 32 33 33 33 34 35 36 35 34 33 34 33 32 32 32 33 35 30 28 28 34 31 30 30 30 28 27 28 29 31 29 28 32 32 32 32 32 30 32
45 45 44 44 43 42 41 41 41 41 39 33 33 31 31 33 34 34 34 35 35 36 35 34 34 34 33 32 33 32 29 28 30 30 34 35 34 33 31 29 28 30 32 31 30 30 30 31 32 32 33 33 33 32
45 44 44 43 42 42 42 42 41 38 38 35 34 32 34 33 32 32 33 33 36 35 36 36 33 32 32 33 31 30 29 28 33 35 36 35 35 34 33 30 29 28 29 30 30 29 29 30 30 32 33 33 32 32
44 43 44 44 43 41 41 40 39 34 35 33 33 34 35 33 33 33 34 34 37 35 32 34 31 28 32 30 28 32 31 34 37 37 35 35 33 32 30 29 30 30 31 31 30 30 30 31 32 32 32 32 32 32
41 44 42 41 40 40 38 38 38 36 31 32 34 34 34 36 34 34 36 37 37 34 35 30 31 28 28 25 27 34 35 36 37 36 33 30 29 30 30 31 30 31 30 30 30 31 30 31 31 32 32 31 30 32
43 44 41 41 42 39 37 37 37 31 31 31 32 32 33 34 34 35 36 36 36 37 36 32 30 26 28 30 36 37 38 37 32 30 30 30 32 31 30 31 31 30 30 30 30 30 30 31 32 31 31 31 32 32
40 40 41 41 41 37 34 35 36 30 30 30 32 32 32 32 33 33 34 36 36 36 34 30 29 33 34 32 30 33 34 34 32 32 30 30 32 31 32 32 31 31 31 30 31 31 32 32 32 31 33 33 32 31
39 39 39 40 37 37 34 32 31 30 29 29 31 31 29 32 31 33 33 36 33 32 28 31 37 36 36 35 34 34 33 32 30 32 30 29 31 33 31 31 32 32 31 32 34 33 33 33 34 35 33 32 33 33
38 39 36 37 35 34 32 32 31 31 31 29 29 31 29 29 29 30 32 32 30 29 29 32 31 32 32 32 32 33 34 33 34 33 30 30 30 31 31 32 32 33 34 35 32 33 34 35 36 35 33 32 33 32
37 36 35 34 32 32 29 32 31 28 27 28 30 27 27 27 28 28 27 27 28 28 30 29 28 31 32 33 30 31 31 31 30 30 33 32 32 33 33 33 33 33 32 33 34 35 35 33 34 33 33 33 32 31
36 33 31 31 32 26 32 28 27 26 28 27 27 24 25 26 26 26 25 27 26 28 27 27 28 27 30 30 28 28 30 30 30 31 32 30 29 30 31 31 32 32 32 32 33 34 34 33 32 32 31 30 30 30
30 28 30 25 28 26 25 25 25 25 23 25 23 24 25 27 25 22 23 28 29 29 29 31 31 30 27 29 30 30 31 31 30 30 30 31 31 32 31 31 31 33 34 33 33 33 32 32 32 30 29 29 29 28
25 27 27 25 25 25 24 22 23 23 24 24 24 26 28 25 22 20 21 28 26 24 26 26 27 27 26 25 24 25 25 27 26 24 25 26 26 27 27 27 28 28 28 30 32 32 32 31 29 28 28 28 29 28
23 23 25 24 23 24 25 26 25 25 22 21 24 24 23 19 19 24 23 23 23 23 23 24 23 22 21 21 22 22 24 24 23 22 23 25 28 25 25 23 22 24 27 28 29 30 29 29 29 28 28 28 28 28
25 25 21 25 25 25 23 23 23 22 23 23 25 21 20 19 22 22 21 21 22 22 22 21 21 20 20 20 22 23 22 21 21 21 21 27 25 23 21 22 22 22 23 24 25 27 28 27 27 27 27 26 26 26
25 27 25 23 25 26 25 24 24 23 24 26 25 23 25 19 21 20 19 20 22 21 19 19 20 21 21 20 22 23 20 18 14 11 10 13 14 16 18 19 19 19 20 20 21 23 25 25 24 24 24 24 24 24
25 29 25 23 23 23 28 31 31 30 29 32 30 23 20 18 18 20 20 19 18 18 19 19 19 18 16 16 16 16 20 19 16 13 10 9 11 14 16 15 14 16 17 18 18 20 22 22 24 25 22 20 17 18
26 27 25 26 24 27 28 28 29 29 30 30 30 27 19 16 17 17 16 18 18 18 16 15 15 16 14 13 14 12 12 15 15 15 13 14 13 13 12 12 12 14 14 14 16 18 19 18 20 20 17 14 12 12
25 24 23 21 25 27 27 26 27 26 28 25 26 22 20 19 16 16 15 17 16 13 12 12 11 11 13 14 15 15 16 15 14 14 12 13 11 11 10 9 11 11 9 9 12 16 16 15 15 12 12 9 7 6
23 24 23 23 22 21 25 23 18 18 22 20 22 20 18 18 14 14 15 16 14 12 11 11 12 13 14 14 10 14 11 11 11 14 13 12 9 9 8 9 9 7 5 6 10 13 11 10 8 8 6 4 1 -0

GFSWCAN_sfc_dewp_033.txt.gz
Dewpoint
50 49 49 49 49 49 48 48 49 49 49 52 51 50 50 50 51 55 53 56 54 47 48 51 51 48 46 47 39 44 39 41 37 33 28 31 31 32 30 34 32 27 26 28 29 24 22 36 37 29 35 41 39 38
49 49 48 48 48 49 48 49 49 49 50 52 51 50 50 50 51 52 52 55 56 52 50 52 51 50 51 51 47 45 40 45 44 37 36 35 34 34 33 27 34 30 33 30 30 29 34 38 38 41 41 39 39 38
49 48 48 48 48 48 49 49 50 50 51 51 52 51 50 50 51 53 54 55 54 47 49 49 48 50 50 51 53 45 45 46 47 47 40 39 33 36 28 31 32 33 37 33 34 35 37 41 41 40 40 39 39 38
48 48 48 48 48 48 48 49 49 50 50 50 51 52 51 50 50 54 54 55 51 47 36 45 47 47 49 51 50 51 50 50 49 44 37 36 33 40 33 33 33 35 37 34 33 37 40 41 40 39 39 39 36 36
47 48 47 48 48 48 48 48 48 49 49 50 50 52 50 50 50 55 55 55 55 50 38 40 47 46 47 48 49 51 50 48 43 38 34 35 36 37 35 36 34 39 36 31 30 39 39 39 39 39 37 34 34 29
46 46 47 48 47 48 48 48 48 48 49 49 50 50 50 50 50 55 50 54 53 55 42 37 46 45 45 46 48 49 50 48 46 40 36 42 46 38 33 31 38 37 37 39 41 41 40 40 39 39 37 35 29 25
46 46 46 47 48 48 48 48 48 48 48 49 49 49 49 49 51 49 46 50 49 52 40 35 40 43 43 46 46 47 47 46 45 39 37 38 40 40 34 33 37 37 41 40 39 39 37 37 37 38 36 32 25 21
46 46 46 46 46 47 48 47 48 48 48 48 49 48 48 48 49 50 50 50 50 47 43 34 36 36 44 39 37 43 39 43 43 40 38 37 38 35 33 39 39 38 39 39 40 40 39 39 37 36 33 22 21 21
45 45 46 46 46 46 46 48 48 48 48 48 48 50 50 48 47 49 48 48 51 46 34 35 33 31 43 39 38 38 41 34 39 34 36 38 34 35 38 39 38 37 38 39 39 37 36 35 25 22 21 22 22 24
45 45 45 46 46 46 46 47 47 48 48 49 50 46 37 42 47 49 47 42 39 38 37 36 38 36 40 35 34 36 35 33 33 34 38 33 34 38 40 37 36 37 37 37 34 29 28 25 23 22 22 26 27 26
45 46 46 45 45 46 46 47 47 48 47 46 40 36 42 46 45 39 35 35 35 35 36 38 37 37 40 34 34 35 33 33 31 32 34 32 32 36 37 36 37 38 37 35 28 24 22 23 23 25 27 29 27 27
45 46 45 45 45 45 46 46 46 45 43 43 42 43 41 38 35 36 34 33 34 34 34 34 35 38 35 40 34 33 33 33 29 35 32 29 32 34 34 35 36 37 32 24 23 23 24 24 29 27 26 26 28 28
45 45 45 43 44 45 45 45 45 45 44 42 37 35 35 32 33 33 32 32 32 33 34 33 33 33 34 35 33 33 32 31 34 32 27 30 34 34 34 32 28 24 25 25 25 26 26 26 26 25 26 28 26 28
45 45 45 43 42 42 43 43 44 43 39 34 33 30 32 30 31 30 31 32 33 33 33 33 32 33 32 32 32 31 31 32 29 24 23 33 35 32 31 31 29 25 26 25 26 27 24 25 27 26 25 26 23 27
45 44 44 43 42 42 43 42 42 42 37 33 33 29 29 31 32 32 33 33 33 34 34 33 33 33 32 30 31 30 28 26 28 28 31 34 33 31 30 30 28 26 25 26 27 25 23 23 26 27 28 28 29 27
44 44 42 43 43 43 42 41 40 38 34 33 33 30 32 32 32 32 32 32 34 33 34 33 31 31 29 30 28 28 27 26 29 32 34 33 32 32 30 28 26 26 25 25 27 27 27 25 24 28 29 28 26 26
43 42 44 43 42 39 41 39 35 33 31 33 30 34 33 32 32 32 33 32 35 33 31 32 28 26 30 27 27 31 28 30 32 32 33 31 30 29 27 27 27 27 27 28 28 28 28 29 27 27 27 29 29 30
42 43 44 43 41 40 39 38 33 29 27 32 32 32 32 33 32 33 33 33 32 30 30 28 30 27 25 24 27 30 30 31 32 31 29 28 28 28 28 27 29 29 28 28 27 27 28 26 28 28 29 30 29 28
43 42 41 41 41 37 33 31 34 27 30 29 31 32 31 32 32 33 33 32 32 32 30 28 26 24 26 28 30 30 30 30 29 28 27 27 27 28 28 29 28 28 28 28 28 28 29 29 29 30 30 29 26 29
40 40 41 41 41 34 31 29 34 28 26 30 30 30 30 30 31 32 33 33 30 31 28 26 26 29 29 29 28 29 31 31 28 28 28 28 28 28 28 29 29 29 29 30 29 27 29 29 30 29 29 28 29 28
39 39 39 39 36 35 32 32 30 30 29 29 31 28 28 30 30 30 32 31 30 24 25 28 28 30 31 31 30 30 29 29 28 28 28 27 28 29 28 29 29 29 28 28 27 29 28 29 30 31 30 24 26 24
38 38 34 36 33 32 28 31 32 30 30 29 30 30 27 27 27 28 30 26 24 26 28 27 28 28 29 29 30 30 30 29 28 28 27 27 27 28 28 28 27 27 27 28 29 30 29 29 31 30 30 32 31 28
37 36 33 32 30 28 24 31 27 28 24 27 29 27 26 26 28 27 25 25 26 28 28 28 29 28 27 28 27 28 29 28 27 28 29 28 27 27 28 29 28 26 27 28 28 29 28 27 28 30 32 29 22 24
36 32 29 30 31 25 27 23 26 25 24 23 26 21 25 26 23 21 18 22 28 28 28 29 29 27 28 29 28 27 26 27 26 26 27 27 27 27 26 26 27 27 27 28 28 28 28 30 32 31 29 24 19 15
30 27 28 25 27 26 21 18 20 23 19 20 18 17 21 24 18 16 16 26 25 23 25 26 26 27 25 25 25 24 24 23 22 21 23 23 21 22 23 24 25 25 23 23 22 24 25 28 32 29 23 20 25 21
25 27 25 25 25 23 19 14 17 19 20 18 19 23 21 18 14 12 23 23 24 24 25 25 22 22 22 22 21 20 22 22 20 18 19 22 23 19 18 16 16 16 19 21 20 20 20 23 26 26 20 20 24 25
23 23 25 27 27 26 21 23 25 23 16 13 18 14 12 7 7 20 23 23 23 25 25 24 21 20 20 20 20 23 22 18 17 18 19 23 21 18 16 14 13 16 17 18 17 17 18 19 23 22 23 24 26 25
23 22 17 22 22 25 18 21 20 21 20 23 19 10 9 9 16 21 21 23 23 24 23 21 20 21 21 22 22 20 12 11 12 12 13 18 16 12 12 13 14 14 12 14 14 16 17 18 19 21 22 22 22 21
25 28 25 20 21 23 21 20 20 25 28 24 15 15 20 18 18 21 20 22 22 22 18 18 13 14 13 14 11 14 13 5 5 1 -1 2 4 6 10 10 10 9 9 11 12 14 16 17 20 19 20 20 18 14
24 28 24 20 17 21 26 28 28 28 26 26 24 20 18 17 17 19 19 17 13 11 16 12 12 7 2 2 3 4 9 9 1 1 -1 -2 5 9 7 7 7 6 7 8 6 7 11 16 18 20 16 13 14 9
27 27 24 23 24 26 26 26 27 27 27 28 27 21 15 12 12 11 11 15 16 5 4 3 2 1 -0 -1 2 -1 -0 1 2 7 6 2 6 1 0 5 4 5 6 3 3 4 6 12 15 13 9 8 7 4
25 24 22 15 22 23 25 24 24 24 26 23 22 17 10 9 4 7 5 9 8 2 1 -1 -2 0 0 4 1 -2 10 3 -1 0 6 6 3 3 2 1 3 4 1 0 2 3 8 8 8 7 5 3 1 0
20 18 17 14 13 13 14 14 12 10 11 11 14 12 8 6 2 5 8 5 3 -0 -1 -2 -2 -1 3 2 -3 -1 -2 -4 -1 10 6 9 2 1 -0 3 5 2 -2 -1 1 6 5 4 1 0 -1 -3 -4 -6

GFSWCAN_sfc_dewp_036.txt.gz
Dewpoint
50 49 49 49 49 49 48 49 49 49 49 51 50 50 49 50 50 51 52 54 51 45 49 50 50 45 46 43 38 41 38 38 36 28 22 25 29 29 29 33 30 29 25 23 23 16 20 33 35 28 32 40 39 38
49 49 48 48 48 48 48 48 48 49 50 51 50 50 50 50 50 52 48 54 54 49 49 50 50 50 50 49 45 42 36 41 39 34 32 35 33 35 30 27 34 26 29 28 29 28 32 37 35 40 41 38 38 37
48 48 48 48 48 48 48 48 48 50 50 51 50 50 50 50 51 53 52 53 50 44 46 47 47 49 49 50 50 42 43 46 45 41 38 33 28 34 29 31 32 32 37 32 32 33 37 40 40 40 40 38 38 39
48 48 48 48 48 48 49 49 49 49 50 50 50 50 50 50 51 53 52 52 47 44 36 44 48 46 48 50 51 49 48 48 45 41 37 36 30 37 29 30 31 31 36 34 33 39 40 40 39 39 39 39 38 37
48 48 47 48 48 48 49 49 49 49 49 50 50 50 50 50 51 54 53 52 52 41 39 38 46 47 46 49 50 49 48 46 41 37 34 34 34 35 30 34 32 39 35 32 32 36 37 37 39 39 38 37 35 34
47 47 47 47 47 48 48 48 49 49 49 49 50 50 49 49 52 51 46 52 50 49 40 33 45 43 44 49 49 49 49 47 43 39 35 39 43 35 33 33 37 40 38 38 38 41 39 39 39 40 37 35 35 26
46 47 47 47 47 47 48 48 48 48 49 49 49 48 48 49 49 46 41 49 49 48 38 35 34 42 43 46 44 45 45 44 43 37 35 36 37 39 33 31 35 38 41 40 40 38 36 37 38 40 37 31 26 23
46 46 46 47 47 47 47 47 48 48 49 49 49 48 48 49 49 47 48 48 48 43 38 33 36 34 42 36 37 41 37 39 40 40 36 33 36 34 33 38 39 39 39 38 39 39 38 38 39 37 31 23 23 23
46 45 45 46 46 47 47 47 48 48 49 49 49 48 48 47 45 47 47 47 47 42 34 30 29 30 41 39 36 35 39 33 38 34 35 35 34 33 37 38 39 39 38 38 40 38 38 36 32 24 23 24 24 25
45 45 45 45 46 46 47 48 48 48 49 48 48 43 37 42 46 47 44 40 38 37 37 31 35 34 39 34 34 34 34 33 32 32 38 33 34 36 38 39 38 38 40 40 36 31 26 25 24 25 26 27 26 25
45 45 45 46 46 46 47 47 48 48 47 46 40 37 42 45 43 39 34 34 35 35 35 37 34 36 39 33 33 33 33 33 30 31 33 32 32 34 36 37 38 37 36 33 28 25 25 25 25 27 27 27 26 26
45 45 45 45 45 46 47 46 46 44 44 44 42 43 41 37 35 34 33 34 34 34 34 35 35 37 36 36 34 33 32 32 28 34 32 29 32 34 36 37 37 31 25 24 26 26 26 27 26 24 23 23 25 26
44 43 43 44 45 45 45 45 45 45 44 42 38 35 36 33 33 34 32 32 32 33 34 34 33 33 34 35 33 33 32 31 34 31 28 31 34 34 32 26 25 25 27 27 26 26 24 24 24 23 23 25 23 27
44 43 43 43 43 43 43 44 44 43 40 34 34 31 32 30 30 30 31 32 33 33 33 33 32 33 32 33 32 31 31 32 29 23 20 33 35 34 31 28 25 25 26 26 25 26 24 25 26 24 22 24 21 25
44 43 43 43 43 43 42 43 42 41 37 32 33 28 28 31 31 32 33 33 33 34 33 33 32 33 31 30 31 29 27 25 27 27 31 33 35 31 30 29 26 25 26 26 25 25 23 22 24 25 27 27 28 25
43 43 41 43 41 42 42 40 39 36 34 31 32 29 32 31 31 32 32 32 33 33 33 33 31 31 28 29 27 27 26 24 27 31 33 33 31 31 29 28 27 26 24 24 25 26 26 24 22 26 27 27 25 24
43 41 43 43 42 41 41 37 32 32 31 31 31 33 32 32 31 32 32 32 34 33 31 31 26 24 29 27 26 30 26 30 32 32 34 32 30 28 27 27 27 27 28 27 27 28 28 28 26 25 25 28 28 29
40 43 43 42 42 41 37 35 32 28 29 32 31 31 31 32 32 32 33 33 31 29 28 26 29 25 24 23 26 29 30 31 32 32 32 30 29 28 28 26 28 28 27 27 27 27 27 25 27 27 28 29 29 28
40 41 41 41 40 34 30 30 31 26 30 30 31 31 31 31 31 32 32 32 30 31 29 26 22 22 23 28 28 29 29 29 28 28 27 27 27 28 28 28 28 28 28 28 28 28 28 29 29 29 29 28 27 25
40 40 40 40 40 33 26 27 32 27 27 30 31 30 29 29 31 32 30 31 31 31 22 21 24 26 27 28 28 29 31 29 28 27 28 27 28 28 27 27 28 28 29 29 29 25 28 29 29 29 27 27 23 25
38 38 38 39 35 34 30 28 27 29 31 30 30 27 28 30 30 30 31 30 21 21 23 26 24 27 29 28 29 29 28 27 27 26 26 26 27 27 28 29 29 29 27 27 25 27 24 25 29 29 29 26 27 25
37 38 34 36 32 27 25 30 27 28 28 29 30 28 27 26 26 27 29 25 25 25 27 25 27 27 28 28 29 29 28 28 28 28 27 26 27 27 27 27 27 25 23 22 26 26 26 27 28 29 31 30 27 30
37 36 33 31 27 21 20 30 26 27 24 26 28 26 25 25 27 27 24 25 27 28 28 28 28 29 28 28 26 25 26 27 25 25 25 25 25 23 23 23 24 23 22 22 25 24 22 23 25 26 27 28 30 30
37 31 28 22 29 24 23 23 23 23 22 25 25 21 20 22 21 22 15 25 28 27 26 26 28 28 27 25 23 22 22 22 22 22 22 21 20 22 23 23 23 20 19 20 19 18 18 19 20 22 25 28 27 26
26 23 21 17 25 24 23 17 14 15 12 16 14 11 17 17 11 11 12 25 24 24 23 23 24 24 23 22 21 21 21 19 19 19 20 21 20 16 16 17 16 17 15 14 13 13 13 14 16 17 21 23 23 22
21 18 17 19 18 20 18 11 12 13 13 12 11 17 15 11 9 9 21 23 23 24 19 23 21 20 19 19 19 18 17 18 18 16 18 19 16 12 9 9 9 10 12 11 12 10 9 11 12 14 15 18 21 23
17 14 23 27 28 26 18 19 22 18 13 11 17 13 9 8 6 20 21 22 22 23 22 22 21 20 19 20 21 16 15 14 13 13 16 16 13 11 8 6 6 9 9 8 8 8 8 8 10 11 13 16 19 21
21 22 17 24 25 27 22 20 20 17 18 22 17 12 11 9 14 18 20 22 22 22 20 20 20 19 18 18 16 10 8 6 7 7 10 11 9 4 2 1 3 10 3 4 5 7 5 5 7 9 13 14 17 14
19 24 22 21 23 22 20 20 20 25 27 24 16 16 16 16 16 18 19 20 20 19 16 14 9 6 8 8 6 5 -1 -1 0 -5 -9 -10 -5 -1 1 -2 0 3 2 3 6 6 5 7 9 10 15 11 9 8
22 28 24 21 20 21 24 26 26 27 26 22 20 18 16 13 15 17 14 14 13 12 9 7 -1 1 -9 -5 -6 -2 2 -2 -5 -4 -9 -9 0 4 -2 -2 1 1 1 3 2 0 4 3 7 12 10 9 6 4
25 25 23 22 22 24 25 26 27 27 27 25 22 14 8 7 8 10 10 8 3 2 2 -4 -2 -11 -6 -6 -7 -12 -8 -3 -6 -3 -4 -4 -4 -8 -6 -4 -3 -2 0 2 -3 -2 -0 -0 4 4 2 1 0 -0
23 22 21 17 20 22 25 23 23 23 20 22 15 13 1 -2 -5 -1 5 4 -1 -4 -9 -12 -9 -7 -4 -3 -8 -10 -6 -9 -10 -8 1 -2 -7 -8 -7 -6 -7 -4 -6 -10 -9 -4 0 -4 -4 -4 -4 -4 -5 -5
16 4 2 3 8 12 6 4 2 8 2 8 10 5 0 1 -3 1 1 -4 -3 -7 -9 -10 -12 -11 -5 -8 -9 -11 -9 -11 -9 1 2 4 -5 -5 -9 -12 -12 -17 -16 -15 -11 -6 -11 -11 -8 -8 -7 -8 -8 -8

GFSWCAN_sfc_dewp_039.txt.gz
Dewpoint
49 49 48 48 48 48 48 49 49 49 51 50 50 50 50 50 51 51 52 52 49 45 47 49 49 44 43 41 37 40 37 37 32 26 22 24 22 29 29 31 31 30 25 22 23 16 18 31 32 27 30 37 39 38
49 48 48 48 48 48 48 49 49 50 50 51 50 50 50 50 51 50 50 54 53 49 47 49 49 50 49 43 44 40 38 39 37 31 28 28 30 34 27 25 32 26 27 27 28 27 31 33 34 38 39 38 38 38
48 48 48 47 47 47 48 48 49 49 50 49 50 50 50 50 52 52 52 51 48 44 46 46 46 49 48 49 49 41 42 44 41 38 37 31 23 32 29 30 30 32 34 30 30 30 33 35 39 40 39 38 38 38
48 48 48 47 47 47 47 48 49 49 49 49 49 49 50 51 51 52 51 50 45 42 35 43 47 45 47 51 51 48 47 44 42 39 35 32 26 35 28 29 32 32 35 33 32 35 38 39 39 38 38 38 38 38
47 47 47 47 48 48 48 49 48 48 49 49 49 49 49 51 51 52 51 50 49 39 38 37 45 46 47 50 49 48 46 44 40 36 33 33 33 33 30 32 31 36 34 31 30 34 36 35 39 38 37 37 37 35
47 47 47 47 48 48 48 48 48 48 49 49 48 49 49 51 51 45 42 49 50 46 40 34 43 43 44 48 47 47 48 44 40 38 35 37 41 34 33 34 37 39 39 36 35 39 38 37 38 39 37 36 35 30
47 47 47 47 48 48 48 48 48 48 48 48 48 48 48 48 50 44 38 46 48 45 38 35 33 41 43 44 43 43 43 43 42 39 34 36 37 38 34 32 35 36 38 40 40 39 37 37 38 39 35 33 27 24
47 47 47 47 47 47 47 48 48 48 49 49 48 48 49 49 48 47 48 47 46 40 37 33 32 34 41 36 37 40 37 38 39 39 36 32 36 35 34 37 39 39 39 38 38 38 38 39 39 37 24 23 23 23
46 46 46 47 47 47 47 48 48 49 49 48 47 48 47 46 45 47 46 46 44 41 34 28 30 30 39 38 35 35 38 33 37 34 35 35 33 33 36 37 37 38 37 37 38 38 37 36 28 24 24 25 24 25
45 45 46 46 47 47 47 47 48 48 48 47 47 43 38 43 46 45 42 38 37 37 37 33 35 34 39 34 34 30 34 29 32 29 37 33 34 35 36 37 39 37 39 39 36 27 26 28 30 30 27 26 26 25
46 46 46 46 47 47 47 47 48 48 47 44 40 37 43 44 42 38 35 33 35 35 35 35 34 36 38 34 33 32 29 32 29 27 30 28 31 33 36 36 36 33 31 30 30 31 33 34 31 28 27 27 25 25
45 45 46 46 46 47 46 46 45 44 43 43 41 42 39 36 35 34 32 34 34 33 34 35 35 37 35 35 32 33 30 32 28 34 32 29 32 34 36 30 27 32 35 36 37 36 31 26 25 24 22 22 24 25
43 43 44 45 45 46 45 45 45 44 44 42 37 35 35 33 33 34 33 32 32 33 34 34 33 33 34 35 33 33 32 30 33 31 30 31 34 32 31 29 32 35 35 31 26 25 26 25 25 23 23 24 24 26
43 43 43 43 43 44 45 45 44 43 40 34 34 33 32 31 30 30 32 32 32 33 33 33 32 33 32 33 32 31 32 32 29 27 23 32 36 36 34 30 26 26 25 26 26 25 25 25 25 24 22 22 20 25
43 43 43 42 42 43 43 43 42 42 37 32 33 28 27 30 32 32 32 33 32 34 33 33 33 33 31 31 31 29 27 24 23 21 30 32 36 31 29 27 25 26 25 24 24 24 22 22 23 25 25 25 26 23
43 42 43 43 43 42 41 39 38 37 33 32 32 29 31 31 31 32 32 32 33 33 33 33 31 29 28 29 25 25 24 19 21 31 33 34 34 30 28 28 27 25 25 26 26 26 26 23 21 26 26 26 24 23
43 41 43 42 43 42 41 34 32 31 30 31 31 33 32 32 32 32 32 32 34 33 30 31 26 23 29 25 24 27 21 25 30 31 33 32 30 28 27 29 29 27 26 26 27 27 27 27 25 25 25 27 27 28
40 41 42 42 41 39 35 32 27 27 30 31 30 30 31 32 32 32 32 32 32 31 28 25 29 25 23 22 24 28 30 31 31 32 33 32 32 30 28 27 28 28 27 27 27 27 27 25 27 28 28 28 28 27
39 39 41 41 39 33 29 29 30 27 29 31 31 31 31 31 31 32 31 31 31 29 28 24 19 19 22 26 26 26 27 27 29 30 28 28 28 28 28 28 28 28 28 29 29 28 28 29 28 28 29 28 27 28
39 39 40 40 38 29 26 27 30 28 28 30 31 29 29 29 30 32 31 31 31 28 20 19 22 25 25 27 28 28 29 28 27 26 26 27 28 28 28 28 28 28 27 27 27 24 27 26 26 27 27 26 26 27
36 36 38 36 31 30 28 26 26 30 31 29 30 29 28 30 29 29 23 30 21 25 23 26 24 27 29 28 28 28 28 27 26 25 24 25 26 27 26 26 26 25 24 23 23 23 22 22 23 23 23 24 25 26
36 38 35 35 27 23 25 29 27 28 28 29 28 27 26 26 26 27 29 27 26 24 26 25 27 27 27 26 27 28 28 27 26 25 25 24 23 22 22 23 23 21 20 21 21 21 19 19 19 19 21 22 24 25
37 36 33 32 20 18 21 30 26 26 24 27 28 25 25 25 27 28 24 24 28 27 27 28 28 27 25 24 22 22 23 23 22 22 22 22 23 22 22 21 19 14 13 15 17 16 15 13 14 14 16 16 19 21
35 30 28 26 21 18 20 23 26 26 25 24 23 21 20 24 25 23 17 25 26 26 25 28 26 25 24 23 21 19 19 20 21 20 21 21 19 18 18 17 17 14 12 11 11 10 10 9 9 10 11 12 13 16
21 21 16 13 18 17 14 15 16 17 14 21 21 19 19 16 8 11 15 23 24 24 23 23 24 24 22 20 20 18 16 17 18 17 18 16 13 11 11 12 13 12 9 5 3 4 5 5 5 6 7 8 9 11
20 16 14 12 13 17 14 12 16 16 12 21 18 17 9 8 14 9 20 22 22 23 21 21 21 20 19 19 17 14 13 15 16 15 14 12 10 5 1 2 3 4 7 1 2 1 2 2 2 1 2 5 7 9
19 14 20 27 26 26 20 17 21 20 16 14 16 17 11 12 12 17 21 21 21 21 22 22 20 19 19 16 14 12 11 10 9 13 14 11 10 9 3 -4 -0 3 6 3 -2 -1 0 0 -1 -0 1 4 6 10
17 17 16 19 25 26 22 21 18 19 16 21 17 13 13 8 12 17 19 21 21 20 18 17 16 16 15 14 11 6 5 3 5 9 8 7 5 -1 -0 -3 -2 7 -1 -4 -6 -1 0 0 0 1 3 5 5 7
21 24 23 19 23 23 23 23 22 26 27 26 19 16 14 14 14 16 17 19 19 17 12 9 6 5 7 6 3 3 -3 -2 -4 -9 -13 -15 -14 -6 -1 -10 -10 -8 -9 -7 0 4 4 5 5 8 10 5 3 2
21 27 23 21 20 21 22 25 24 26 24 21 19 15 13 12 12 15 13 12 9 6 3 2 -3 -2 -13 -10 -11 -6 -6 -11 -10 -9 -13 -13 -7 -2 -10 -9 -8 -8 -7 -10 -6 -5 -2 -4 -4 -7 -5 -4 -2 -2
26 26 23 22 20 21 23 25 26 27 26 20 17 11 8 8 8 9 8 5 6 -0 -3 -8 -8 -16 -11 -12 -14 -15 -11 -12 -15 -9 -5 -7 -12 -15 -13 -11 -12 -15 -13 -13 -15 -15 -14 -13 -16 -17 -15 -14 -13 -10
18 15 16 16 18 21 21 22 21 21 21 20 13 8 2 -3 -8 1 2 -3 -3 -7 -13 -18 -12 -9 -9 -10 -13 -15 -9 -13 -14 -14 -12 -9 -13 -15 -15 -14 -19 -20 -22 -21 -20 -19 -20 -20 -22 -21 -21 -19 -19 -17
12 9 7 3 8 16 3 0 2 8 11 9 4 0 -3 -4 -6 1 1 -5 -6 -9 -12 -13 -15 -16 -14 -13 -12 -14 -13 -16 -15 -5 -4 -4 -9 -9 -16 -20 -22 -24 -23 -24 -24 -22 -22 -21 -22 -22 -22 -22 -21 -20